GFSSGP_prec_cthk_027.txt.gz
RH
23 22 22 26 25 22 24 22 29 39 39 43 49 58 61 62 64 65 68 72 80 84 83 81 73 70 66 62 59 54 50 40 30 16 12 10 9 12 14 15 16 17 17 17 17 17 18 17 18
19 25 28 25 21 24 24 33 55 48 50 56 57 56 57 65 66 68 64 70 76 77 82 80 78 74 71 69 64 59 49 39 29 16 12 10 11 14 16 17 18 18 19 19 20 21 21 22 24
16 28 29 22 22 24 26 44 49 49 53 53 60 61 56 61 67 67 67 71 75 77 77 75 81 80 79 76 68 58 48 37 26 15 12 12 14 18 18 19 20 21 22 23 25 26 27 29 30
19 22 24 24 25 21 33 42 48 53 60 63 64 63 62 61 67 65 71 76 77 76 79 75 82 86 87 82 71 56 45 33 25 14 13 14 19 19 20 22 23 24 25 27 29 32 34 34 35
24 25 23 24 24 27 36 50 54 59 65 65 56 55 61 59 63 73 81 84 83 82 85 83 87 93 88 85 75 58 41 29 20 12 13 18 21 22 23 24 25 27 29 31 34 37 39 41 42
27 23 25 24 30 38 51 56 61 55 54 47 46 56 65 58 57 79 89 96 99 88 92 93 91 95 88 86 73 50 32 24 12 14 16 21 22 24 28 26 28 30 31 33 37 41 45 46 46
30 28 29 26 34 44 60 58 63 64 51 45 52 70 74 74 61 72 88 97 99 96 98 93 95 89 80 77 65 44 32 25 16 17 20 25 27 26 25 29 33 35 36 37 43 45 47 51 50
32 32 30 30 35 53 62 68 65 70 63 59 58 70 77 88 75 76 78 88 94 95 94 91 89 88 79 71 50 32 26 18 17 21 25 27 26 26 28 33 36 40 42 46 54 56 58 60 54
29 30 26 33 45 60 61 61 73 68 61 63 65 66 75 83 79 69 80 83 89 89 92 90 93 89 78 56 43 30 17 14 18 24 25 28 31 31 36 38 41 45 49 54 61 63 64 64 65
32 25 32 45 53 59 60 60 60 59 60 69 68 90 86 79 71 72 79 84 80 88 87 85 86 70 55 43 27 16 12 15 23 29 32 34 33 37 44 55 59 61 64 64 66 68 68 69 65
32 29 35 40 47 56 59 55 57 62 68 72 75 85 87 82 81 88 83 66 64 65 76 78 69 46 37 24 16 16 20 29 36 40 44 47 48 49 57 59 66 65 65 70 73 72 70 68 63
33 35 39 47 52 58 58 56 61 55 69 68 70 74 82 90 85 72 69 55 53 55 53 58 45 36 30 21 21 25 33 39 44 52 54 54 55 57 60 64 70 67 66 73 72 66 68 63 52
36 37 44 52 49 62 59 55 57 60 65 68 72 72 74 75 74 66 38 38 37 33 36 38 35 34 29 28 34 41 45 53 56 53 56 54 59 66 69 68 67 58 62 64 64 63 59 52 45
35 40 45 51 50 58 58 55 54 55 61 68 65 57 53 58 43 39 42 30 26 30 32 31 31 35 36 41 47 51 55 59 66 61 57 62 62 64 64 58 57 61 61 60 61 53 43 39 40
47 37 40 45 50 51 54 58 51 46 49 45 46 44 60 52 44 45 38 36 34 24 26 30 37 43 45 50 55 59 60 69 60 57 56 59 59 56 57 57 58 59 55 49 40 36 39 41 42
42 37 38 41 49 58 52 47 54 46 42 42 42 37 44 41 43 43 42 38 38 28 29 35 42 48 55 61 59 60 64 68 59 55 50 46 53 55 56 57 55 44 35 35 39 42 43 44 44
41 44 43 38 40 44 37 46 44 48 49 54 43 37 41 44 47 45 41 36 39 43 46 48 47 54 63 67 67 68 68 73 64 50 47 48 51 54 51 44 39 37 42 44 47 49 50 47 44
47 49 42 43 40 42 43 42 36 40 43 44 42 37 40 39 40 38 39 40 45 49 60 61 56 61 68 70 70 68 67 68 59 53 48 51 48 45 41 40 41 49 53 56 56 54 47 39 33
48 46 43 40 38 36 40 32 30 31 41 44 43 49 37 34 35 39 41 44 44 47 54 52 61 66 64 65 63 66 65 62 55 50 49 46 44 42 43 45 51 58 60 61 56 45 35 32 29
47 47 42 36 35 31 41 37 28 35 36 49 46 43 39 40 40 42 42 45 42 48 52 61 67 68 62 60 63 63 57 54 50 46 42 40 42 48 52 56 59 62 57 49 40 33 31 31 32
50 48 44 37 23 24 36 36 40 38 33 42 45 44 46 46 40 41 44 44 44 46 53 62 69 65 60 63 64 57 54 50 44 42 41 44 48 53 60 62 61 58 51 45 38 34 32 33 34
44 49 42 39 31 25 30 43 41 46 44 46 47 45 47 48 42 39 41 47 47 49 56 68 65 58 60 59 59 54 52 48 46 43 46 50 54 57 60 63 59 52 42 40 37 35 34 36 41
47 45 40 43 48 52 48 47 42 46 49 49 49 53 49 47 44 45 46 46 51 52 53 55 56 59 57 55 56 57 57 51 48 49 51 53 54 56 57 60 56 52 47 38 33 34 38 42 43
37 36 36 47 47 58 38 45 51 53 48 47 49 42 44 52 51 50 50 50 50 51 54 55 55 54 54 55 55 53 51 47 48 52 57 62 65 62 53 52 44 42 39 35 35 39 43 46 46
38 37 49 53 65 64 48 51 52 49 46 39 31 31 35 43 49 49 48 48 50 50 51 56 53 53 55 54 52 51 50 51 56 61 63 65 68 62 50 43 47 51 39 36 41 45 45 46 47
44 35 57 69 74 58 50 58 46 35 38 39 36 41 33 38 44 45 44 47 48 50 54 53 50 51 53 52 54 56 57 56 59 61 67 66 67 54 46 48 60 52 38 41 46 46 48 48 47
39 44 47 65 64 67 49 29 45 43 42 44 44 29 33 37 40 41 43 44 47 50 50 47 47 47 48 51 56 59 60 61 64 68 70 66 62 54 52 53 51 44 42 44 47 49 50 50 53
32 43 51 50 47 45 29 38 51 51 46 45 38 34 34 35 36 38 39 39 40 43 43 43 44 46 47 51 55 61 65 65 67 69 72 64 67 63 54 50 46 48 52 55 57 57 56 60 59
34 34 30 30 44 57 57 47 42 40 38 37 43 39 34 35 36 35 34 33 33 34 38 42 46 48 50 55 59 62 64 67 72 72 70 73 64 76 62 52 54 57 57 57 59 61 59 57 58
36 37 48 53 37 49 50 38 29 32 32 31 30 33 35 37 37 35 34 33 33 34 37 41 46 50 53 55 60 65 71 75 73 71 72 71 69 61 58 61 63 57 57 60 58 55 60 65 72

GFSSGP_prec_cthk_030.txt.gz
RH
17 22 21 23 26 25 27 24 23 27 36 41 46 59 68 67 65 59 66 71 69 68 67 69 74 76 70 67 67 60 51 40 32 27 22 18 12 11 14 16 17 17 16 16 17 17 20 23 25
14 21 26 26 24 27 27 30 34 48 54 52 51 52 60 70 72 69 72 72 70 76 74 77 72 73 68 68 67 60 48 39 34 29 23 20 12 14 15 17 18 18 18 20 20 21 22 24 27
15 20 30 25 23 25 27 40 49 54 53 51 52 57 62 68 71 70 67 75 76 77 77 77 72 71 69 67 67 57 45 37 34 31 23 22 18 17 17 19 20 20 21 22 23 25 28 28 31
17 22 25 24 23 24 32 34 43 50 49 54 58 58 61 65 65 66 67 67 72 77 78 79 77 70 69 68 64 53 44 40 37 25 24 26 19 18 20 20 22 21 22 24 27 31 31 32 33
22 22 24 24 26 31 40 46 45 62 64 64 58 59 62 66 66 71 72 69 72 81 84 81 78 80 75 72 65 55 51 42 31 25 25 22 22 20 24 24 23 23 26 29 33 34 37 36 37
26 24 25 28 28 42 51 57 58 65 76 66 59 58 70 74 70 70 74 81 88 89 93 87 93 89 83 77 68 61 46 34 26 26 20 20 22 24 23 23 26 28 30 31 36 41 42 42 44
30 29 32 30 34 40 50 58 66 63 70 66 59 65 78 85 82 74 81 89 93 99 98 99 97 96 91 82 72 50 39 26 17 18 18 20 22 24 26 28 31 32 36 39 42 47 51 50 50
31 32 30 33 36 46 62 66 72 68 69 72 72 75 80 81 79 80 88 99 97 98 98 98 96 91 87 83 61 42 32 22 21 20 22 26 29 30 29 31 35 37 39 45 49 53 56 60 55
36 34 36 35 43 59 61 68 71 69 66 74 80 77 79 76 77 89 89 96 93 95 94 92 88 85 84 68 53 41 35 31 33 31 30 29 28 28 30 34 41 48 49 53 57 60 62 60 58
36 34 35 36 52 53 55 60 60 60 66 75 74 72 73 88 85 78 83 84 91 89 87 80 75 84 72 56 42 30 17 14 20 24 28 30 33 36 41 48 50 54 58 60 63 65 67 65 59
33 29 33 37 45 49 55 60 62 64 70 71 69 73 73 80 87 82 77 68 87 85 70 70 68 59 48 40 26 17 15 26 38 45 47 46 49 56 54 53 54 58 62 59 60 60 64 62 55
35 35 36 40 45 52 62 60 63 65 65 67 64 67 78 93 85 57 65 59 57 60 63 67 54 47 35 25 20 19 24 40 47 46 45 44 50 53 58 64 63 62 58 55 56 56 57 54 47
37 37 40 42 50 52 60 62 61 63 61 62 64 75 90 83 72 40 37 43 49 53 63 62 55 45 33 25 27 31 40 47 51 54 52 50 52 55 63 64 61 55 52 51 54 55 50 45 39
40 39 47 52 58 57 57 56 58 63 64 69 68 72 73 63 39 33 30 35 37 41 38 37 36 35 33 35 39 44 49 52 57 58 56 54 55 57 61 59 53 52 53 51 52 45 38 34 36
46 43 49 48 59 52 51 55 54 57 54 54 51 64 65 47 42 33 32 30 35 37 38 42 45 45 46 50 52 52 55 69 66 59 57 53 49 51 56 53 53 57 51 48 37 32 35 39 40
43 38 44 53 54 56 52 47 46 51 49 47 51 53 51 49 45 42 42 38 31 35 41 46 47 49 52 58 57 60 65 68 70 64 53 47 45 48 50 55 55 47 40 32 34 38 41 43 45
39 38 39 49 51 50 50 49 43 42 45 49 43 45 46 45 46 42 38 38 36 37 46 53 50 49 51 60 63 64 66 65 64 57 51 46 42 45 48 48 43 36 34 39 44 47 49 50 46
41 44 44 45 44 47 50 42 45 47 42 47 50 48 44 42 40 40 45 46 45 40 41 46 44 52 56 59 61 58 57 54 55 51 46 41 41 40 38 38 39 38 40 47 53 56 55 48 37
52 48 50 48 45 47 47 42 46 40 48 48 51 54 46 41 42 42 41 45 48 47 48 47 51 62 61 59 54 55 52 54 52 47 41 38 37 38 38 39 41 48 55 56 55 51 46 38 34
51 51 49 41 36 38 47 48 47 41 45 47 47 44 45 43 44 42 39 40 41 46 49 53 61 65 59 55 56 56 58 61 51 43 41 40 39 40 42 48 54 60 63 61 49 49 43 40 38
50 48 47 45 37 38 42 46 40 36 46 56 51 41 41 39 41 45 40 39 39 43 47 53 66 68 60 59 60 60 63 57 51 45 43 42 44 48 52 56 60 58 56 55 58 47 44 41 38
47 41 43 46 40 31 32 45 38 34 40 47 54 55 43 39 38 40 41 40 40 43 56 63 65 63 60 66 63 60 58 51 48 46 46 47 50 53 55 59 65 60 53 46 43 43 44 40 42
49 46 46 45 47 31 35 42 39 44 40 45 48 50 48 43 38 41 41 42 44 46 52 61 59 60 62 59 60 60 57 54 51 52 52 53 55 58 59 61 65 57 45 39 41 49 48 43 44
46 47 47 49 52 59 53 47 48 50 45 38 42 41 40 46 48 49 52 52 53 58 55 63 63 56 60 60 60 59 57 56 54 57 57 59 64 65 70 67 62 54 45 45 47 44 46 45 47
39 40 49 54 67 63 52 50 43 45 42 37 35 40 39 45 51 53 54 58 60 61 64 65 55 55 59 58 59 61 60 63 66 67 70 73 72 71 79 72 60 59 55 52 44 44 45 49 55
46 43 51 53 59 50 46 49 46 38 35 35 36 41 34 39 44 45 50 55 59 64 57 58 53 50 50 57 59 61 66 69 72 73 74 74 75 76 77 61 70 52 51 59 56 49 50 53 55
47 48 43 59 65 63 57 41 38 39 38 37 41 30 29 33 35 39 44 50 51 58 54 51 52 49 51 57 64 67 70 72 75 75 78 76 74 81 76 69 68 53 59 50 50 51 57 57 58
40 42 53 59 59 55 37 37 44 42 39 37 43 34 29 32 34 38 38 39 41 43 47 49 48 50 52 60 66 70 72 74 75 76 75 80 82 68 71 66 63 57 61 54 58 57 58 64 64
43 35 43 47 50 48 52 45 35 38 35 35 35 32 31 27 30 32 32 32 32 38 40 42 43 48 52 57 64 70 74 75 79 81 78 72 70 79 77 74 64 66 62 60 60 64 63 68 72
42 36 41 57 49 58 52 38 37 39 36 36 33 31 31 32 31 31 30 31 34 36 38 38 42 49 54 55 59 64 69 75 77 70 69 70 75 79 72 71 70 64 65 66 68 69 70 70 74

GFSSGP_prec_cthk_033.txt.gz
RH
16 16 20 25 27 25 24 25 29 29 35 46 50 65 69 67 66 65 67 70 68 69 71 71 70 66 58 61 62 60 52 47 41 34 27 25 22 22 17 13 15 15 16 18 20 21 21 22 23
16 15 19 29 29 28 27 29 31 34 41 51 54 59 60 68 70 73 75 74 75 76 77 75 74 67 68 62 66 61 51 44 41 32 28 30 26 23 15 15 17 19 19 20 21 21 22 25 26
17 18 25 32 31 32 32 31 40 40 59 64 61 60 64 70 69 73 73 78 81 82 82 77 76 64 65 63 63 56 47 45 37 32 33 33 25 21 19 19 21 21 20 21 22 25 27 29 29
18 20 25 27 30 32 28 31 34 38 52 68 70 68 73 69 69 71 74 78 77 78 79 77 73 70 76 72 61 51 46 39 38 34 38 29 26 26 24 27 22 22 24 25 28 29 27 28 30
21 23 24 25 32 27 39 41 45 47 52 66 71 80 74 74 71 75 78 79 80 83 87 84 80 77 78 70 58 51 47 40 39 41 34 30 32 28 26 25 25 25 28 30 32 33 36 35 34
24 25 25 29 27 32 40 46 51 56 59 67 77 74 76 73 73 75 76 76 79 86 94 91 94 93 85 69 57 52 44 47 46 36 32 32 28 29 26 25 27 29 31 33 35 39 41 42 44
27 30 31 30 33 38 49 50 56 61 64 69 73 81 80 76 75 78 82 81 83 88 93 97 98 96 80 65 61 57 56 50 41 34 27 28 29 28 28 28 30 35 37 37 41 44 49 51 55
28 34 32 33 35 45 54 59 66 68 69 73 75 80 83 81 79 77 80 85 92 95 98 99 98 91 79 73 70 65 47 31 27 21 22 26 27 28 30 33 35 37 40 44 51 55 56 59 59
31 36 36 40 48 52 55 58 66 62 65 73 71 76 80 80 78 79 81 88 89 95 98 97 95 87 83 76 62 48 34 27 29 25 29 35 35 36 34 32 35 40 49 55 55 58 62 64 64
34 37 37 39 45 49 54 60 60 64 67 75 74 76 78 77 79 87 82 82 87 88 93 94 93 89 81 67 58 45 37 34 31 31 33 34 33 32 35 38 45 48 53 54 57 55 55 56 56
37 37 39 38 42 49 58 60 59 61 68 72 71 76 80 83 81 89 89 85 86 90 77 82 83 83 70 54 41 30 22 22 30 40 46 46 48 50 54 56 52 58 59 56 53 51 53 50 46
38 38 39 37 42 52 57 59 62 63 64 75 78 72 70 84 82 73 75 84 91 83 70 71 66 54 47 45 35 29 30 36 44 47 48 47 46 49 54 57 64 64 56 52 49 49 50 46 42
44 45 35 38 48 55 56 57 60 63 67 71 71 69 73 68 72 65 63 64 65 63 59 57 51 44 35 32 33 33 41 47 50 54 53 49 46 47 53 62 61 56 49 53 52 51 47 44 41
49 42 47 50 56 56 57 53 56 63 66 74 73 65 59 56 45 45 34 45 44 48 55 53 50 44 43 41 41 39 46 49 56 55 55 51 48 50 56 58 57 53 51 55 55 49 41 38 38
47 43 49 48 55 59 56 51 56 61 57 49 58 55 47 41 35 25 24 28 32 36 38 37 36 39 40 41 44 47 54 56 60 62 62 55 50 50 48 50 52 52 55 59 50 35 35 41 44
45 37 44 49 54 57 54 52 50 56 54 52 52 54 46 41 34 32 31 29 32 37 38 43 44 45 48 54 55 58 63 70 71 74 67 57 53 48 46 47 50 51 56 46 35 35 42 45 46
44 37 39 47 51 58 55 51 56 54 54 50 45 48 44 45 41 38 34 32 36 42 46 49 47 49 53 59 59 62 67 71 71 67 55 53 45 44 44 46 49 52 41 37 37 42 45 47 43
44 43 43 45 44 51 59 52 55 51 57 52 46 41 42 39 36 39 41 41 39 42 48 47 51 59 63 62 58 61 62 62 60 51 50 48 41 42 44 46 44 40 38 39 45 47 45 44 40
43 48 48 45 43 42 52 55 55 52 57 51 54 49 42 38 40 42 43 44 43 41 41 42 52 61 63 61 59 64 61 60 56 52 49 45 42 40 40 39 40 40 40 45 49 50 47 46 49
49 49 47 45 37 39 45 53 54 48 49 50 46 46 45 45 43 42 41 43 43 45 44 46 53 56 61 59 59 62 60 59 58 55 51 44 40 37 38 41 44 45 49 54 54 49 45 46 45
54 51 49 47 44 37 41 46 49 42 45 52 54 46 42 40 41 42 43 43 45 47 45 51 59 67 66 59 63 63 64 65 59 55 52 45 42 41 44 47 48 51 52 57 56 53 45 45 50
53 50 48 45 41 41 34 39 41 43 41 47 54 57 55 42 42 47 44 43 47 51 52 60 68 71 67 61 65 66 69 69 59 56 55 50 49 50 52 54 55 58 60 67 64 60 50 48 48
50 48 46 45 47 47 39 38 37 35 38 44 47 53 56 52 42 44 45 50 51 60 66 59 72 79 71 63 65 71 66 62 61 57 53 53 56 56 61 62 64 64 76 73 58 56 48 49 56
45 46 47 51 50 58 42 44 41 43 40 40 41 46 53 52 50 54 51 51 52 63 66 66 73 69 72 64 65 64 63 63 61 57 56 63 65 67 69 65 69 74 85 78 59 70 60 53 57
43 44 48 52 63 58 49 51 39 37 40 39 39 36 40 45 47 49 49 51 57 57 66 74 74 70 63 58 56 55 58 63 69 67 73 76 71 74 78 68 75 85 82 66 60 52 55 58 59
46 44 51 51 62 51 50 47 36 36 42 37 36 36 39 35 37 43 48 52 53 57 64 79 67 62 56 55 52 52 58 69 74 75 80 74 77 77 72 80 94 87 65 65 64 63 55 57 54
46 41 43 54 60 59 52 48 38 34 40 39 35 41 31 28 31 37 43 44 52 54 63 67 55 54 53 50 49 51 63 71 71 78 78 82 80 86 93 89 77 75 69 70 56 61 58 63 66
43 42 46 56 54 55 49 43 44 40 37 34 35 39 29 26 28 31 33 38 41 51 53 47 48 47 44 46 51 55 61 64 72 73 76 80 85 84 82 75 77 74 73 65 64 67 67 70 68
47 49 47 44 59 61 61 42 30 34 27 26 29 34 30 28 25 26 27 31 33 32 31 33 35 36 39 44 49 57 66 74 75 76 78 78 76 73 72 74 78 74 73 72 76 74 70 65 65
47 53 53 55 47 61 57 43 28 33 33 30 29 30 33 31 28 24 28 34 36 37 38 37 38 45 51 55 61 72 79 83 83 79 75 69 68 72 76 77 75 79 78 80 79 76 72 62 62

GFSSGP_prec_cthk_036.txt.gz
RH
20 17 15 19 27 27 27 27 28 35 43 53 58 61 74 78 71 70 68 68 72 71 72 73 72 66 58 55 55 47 50 51 39 39 44 29 28 24 24 22 16 17 18 18 18 20 21 25 28
20 17 16 22 27 31 29 30 30 38 49 53 52 64 69 74 74 76 73 72 73 74 75 80 80 74 64 60 58 52 45 49 44 47 36 29 29 27 27 24 19 20 20 20 21 22 24 27 29
22 20 20 24 28 32 33 30 36 39 39 54 54 61 69 75 76 74 70 74 76 78 79 83 81 77 67 60 58 49 44 47 43 40 36 29 32 34 28 24 21 20 22 22 24 26 27 28 28
21 23 20 21 23 29 30 29 42 44 43 47 62 66 70 74 74 69 73 74 78 78 79 83 84 77 72 71 63 49 58 45 42 40 33 35 40 32 30 31 23 23 26 26 28 28 32 32 30
22 22 22 20 23 29 29 38 42 52 53 52 66 76 79 80 76 72 76 77 81 82 88 93 90 84 80 77 61 65 47 41 43 41 39 43 35 32 34 33 29 32 29 30 32 36 36 35 36
24 24 24 23 24 29 40 45 49 54 56 60 66 74 81 80 78 76 78 79 83 84 88 95 95 92 86 80 72 52 42 46 45 44 46 39 40 41 34 30 28 32 34 34 38 43 41 42 45
26 28 28 26 31 41 51 53 56 57 60 61 60 69 79 82 75 74 80 81 82 85 92 96 99 96 90 75 55 47 47 49 50 47 44 45 41 36 30 30 32 37 39 41 45 47 49 50 53
26 32 34 35 41 42 56 57 58 63 64 68 67 70 80 84 79 77 81 84 86 89 93 95 98 95 82 65 54 53 55 60 52 44 38 37 33 31 30 32 36 39 42 45 53 52 51 56 58
29 42 35 40 45 43 56 60 62 66 67 69 73 72 76 83 79 75 77 81 84 96 98 99 95 86 75 70 70 68 63 48 35 34 36 33 34 35 36 36 39 40 47 54 56 58 55 51 49
33 40 39 40 44 45 53 59 64 66 67 69 70 73 78 82 80 79 82 81 80 83 88 95 93 86 82 80 76 65 47 32 35 38 40 40 40 39 40 41 43 48 55 59 57 56 50 45 44
37 42 41 41 41 47 56 59 64 70 69 70 72 75 77 82 82 84 86 88 86 78 84 89 92 92 87 77 62 47 38 33 31 33 38 39 38 40 46 53 60 62 63 59 50 45 42 44 39
41 44 43 41 44 50 60 63 65 62 65 70 73 75 74 79 86 88 87 89 87 73 80 87 89 83 70 55 43 32 29 35 40 48 50 49 48 49 51 54 63 67 65 57 47 48 44 42 38
48 45 42 41 49 59 55 59 60 60 69 69 69 73 77 78 79 81 91 93 79 70 68 68 65 60 50 40 39 37 39 45 50 58 57 51 48 48 49 53 64 64 57 54 51 49 46 41 38
38 45 53 55 60 61 57 57 59 58 58 64 63 63 67 64 62 70 70 70 70 63 60 59 58 51 44 41 42 41 44 49 53 55 56 53 49 46 48 51 57 56 54 54 54 52 44 36 36
41 45 51 54 59 59 55 51 56 58 52 55 48 49 51 37 35 53 51 50 47 42 45 46 48 47 49 48 46 45 49 55 57 57 57 60 54 54 53 51 53 53 52 54 54 43 35 36 40
39 44 45 54 55 54 52 50 57 56 46 45 48 49 41 32 30 34 43 44 40 42 45 47 48 50 52 48 46 46 53 57 60 64 69 67 58 55 52 50 53 51 53 54 40 36 38 40 42
44 44 45 56 54 57 54 50 57 53 48 43 44 46 41 39 36 31 32 40 40 47 52 50 49 48 50 49 52 53 55 60 61 74 70 59 52 52 51 49 52 54 52 39 38 40 43 43 42
50 47 46 47 49 58 55 48 57 62 55 49 40 45 40 37 35 33 35 40 46 51 51 50 50 54 55 54 54 57 59 59 59 66 54 48 48 50 50 51 53 50 41 40 42 44 42 42 39
47 47 44 40 45 43 53 51 50 58 57 57 47 41 41 37 40 41 40 38 40 43 41 46 53 62 62 60 56 56 58 63 59 60 56 51 54 50 50 51 47 41 41 42 42 44 45 46 45
46 47 47 43 43 41 45 49 47 51 53 51 52 44 40 38 39 39 40 40 38 37 38 44 53 57 62 60 53 58 58 61 62 61 58 59 56 50 48 46 42 42 42 43 46 47 51 54 54
50 47 50 51 42 39 44 46 52 46 49 51 54 51 42 43 40 38 38 39 40 41 42 45 51 58 62 59 53 56 60 64 66 68 65 59 56 49 46 44 44 45 48 48 50 58 64 68 69
55 49 50 47 44 38 39 41 43 42 45 49 49 54 55 46 40 42 43 42 44 48 49 50 55 62 63 60 56 56 62 67 74 74 63 59 56 52 49 52 54 55 59 57 63 66 74 81 69
49 47 46 43 44 41 39 39 33 40 43 45 49 51 53 48 48 44 43 49 52 51 52 59 59 62 71 70 66 63 73 78 79 75 75 64 62 60 64 65 62 67 72 71 87 87 83 72 64
45 46 46 48 47 53 47 45 40 37 39 44 46 46 49 49 45 45 49 61 61 57 56 58 73 72 72 74 71 62 62 69 74 73 74 72 75 73 75 73 72 76 85 90 86 89 81 65 60
45 49 51 49 61 56 49 49 41 39 36 40 40 39 41 42 43 45 48 56 56 61 62 61 81 84 80 78 73 70 66 73 73 74 74 80 83 82 80 82 85 84 84 92 86 72 63 66 58
45 46 54 49 59 50 52 51 36 35 34 38 36 32 34 37 33 37 46 49 46 60 61 61 74 80 83 81 73 67 64 66 68 73 78 86 83 85 84 81 77 94 83 86 74 69 66 63 66
47 46 45 56 61 58 47 40 33 37 42 42 40 37 34 30 29 33 35 37 45 52 53 54 73 81 71 60 63 59 58 62 63 74 86 82 81 79 78 78 78 84 75 74 73 68 68 69 66
47 47 49 52 52 53 47 41 39 35 38 38 38 37 36 33 28 29 32 30 32 36 40 40 63 54 50 54 51 48 52 59 68 76 79 85 84 82 75 81 77 76 78 73 73 73 74 73 70
48 47 49 49 53 55 56 46 38 30 34 37 36 35 33 33 27 29 28 26 23 26 30 36 39 40 44 44 47 55 63 73 82 84 86 84 79 76 81 80 83 79 72 75 78 80 78 75 77
43 45 47 58 51 66 61 44 35 31 30 31 33 30 32 37 35 31 26 27 31 32 37 40 49 55 61 66 70 75 82 82 84 82 78 76 73 81 83 79 71 74 78 78 84 87 79 77 73

GFSSGP_prec_cthk_039.txt.gz
RH
22 20 17 18 22 23 25 25 32 39 45 56 60 58 62 72 80 73 76 80 77 77 77 76 72 68 64 63 59 53 46 39 36 38 38 43 33 28 25 24 22 17 17 19 20 22 23 23 25
22 20 18 19 21 23 23 28 29 39 41 56 57 69 64 76 79 80 80 82 83 80 80 82 78 74 69 65 59 51 46 40 36 37 39 40 32 27 28 29 26 21 20 21 23 23 25 25 26
21 22 21 21 21 21 26 28 34 35 36 41 61 68 76 74 75 76 74 79 81 81 81 79 80 77 70 65 58 49 39 40 42 39 40 34 30 31 35 31 25 23 23 23 26 27 28 28 30
21 24 21 20 19 22 27 28 40 40 42 44 51 68 70 72 71 68 70 77 80 77 81 83 78 76 71 66 58 46 38 46 40 43 41 36 34 39 38 30 28 28 25 27 32 32 31 34 35
22 23 23 21 21 26 29 34 40 47 46 52 56 66 72 73 68 67 72 74 79 83 88 85 87 81 77 71 59 48 49 47 47 44 38 36 39 42 36 34 34 32 32 33 35 35 37 39 42
25 24 24 24 22 30 40 43 48 50 50 54 58 64 79 75 79 73 77 83 87 90 88 95 94 91 83 72 60 53 58 54 45 40 41 44 46 37 38 38 38 39 39 39 41 42 41 48 49
25 26 29 27 34 48 57 61 57 57 54 56 61 69 74 75 77 75 80 84 84 89 90 92 96 97 82 71 64 62 59 44 45 44 48 48 42 44 39 40 41 40 39 42 45 47 50 49 54
26 30 30 35 47 45 54 61 58 59 60 61 59 64 70 73 74 73 79 82 87 87 93 94 97 96 87 74 70 62 48 46 48 54 57 51 43 42 40 40 40 37 42 47 50 53 55 55 52
30 40 35 42 46 44 53 59 66 65 65 67 64 66 66 71 76 79 80 82 81 80 88 93 97 93 84 68 60 51 48 56 61 58 48 43 38 37 37 38 40 42 47 54 57 55 55 50 43
36 41 36 46 45 45 49 56 63 68 69 70 70 68 72 78 82 80 81 81 87 88 90 94 94 94 83 72 59 58 66 69 54 43 40 37 39 41 39 42 44 50 59 58 54 51 45 40 38
41 42 40 42 43 46 58 66 67 71 68 67 70 77 79 80 82 84 85 86 87 89 89 90 89 91 78 74 77 77 69 50 36 39 42 43 44 44 42 43 49 60 65 61 58 51 44 40 35
49 46 42 40 43 51 66 68 65 61 66 71 73 78 85 81 84 87 90 92 82 83 88 89 89 90 90 86 81 61 50 34 35 37 43 49 49 50 53 54 59 66 69 68 59 51 46 42 36
45 42 41 43 50 62 62 64 62 59 70 72 71 77 85 85 84 86 95 83 74 81 88 90 90 86 83 71 51 36 30 33 42 46 51 51 51 50 53 51 55 66 66 60 55 52 49 40 36
41 46 54 60 59 63 57 58 58 58 61 62 66 71 78 79 82 92 91 81 75 71 68 71 77 71 61 55 49 42 41 47 52 58 54 53 52 49 48 50 52 55 54 54 50 53 45 36 35
41 49 53 62 65 61 56 50 55 59 57 53 53 60 60 65 89 84 70 72 65 61 55 53 52 50 51 44 41 40 45 49 53 56 55 57 55 52 55 57 55 51 51 52 52 49 36 35 38
39 47 48 55 60 58 52 51 56 55 48 49 49 41 37 47 62 61 59 53 51 52 55 53 55 51 48 46 47 46 48 52 57 61 64 64 66 60 57 52 51 50 51 52 52 36 36 38 40
43 46 48 54 59 59 51 53 61 54 44 41 48 42 29 33 43 49 48 48 50 49 51 55 57 58 58 56 51 48 50 55 60 63 65 72 75 62 55 50 49 49 51 53 40 35 39 42 42
41 47 48 48 51 59 54 50 59 63 49 41 43 45 40 36 30 35 44 43 47 52 53 57 54 56 58 53 47 47 48 55 57 62 68 67 62 54 50 51 50 50 51 44 37 38 42 44 43
42 49 46 45 46 51 51 49 56 59 59 48 39 43 40 34 32 34 41 50 54 51 54 58 61 57 60 56 51 55 54 55 63 70 68 58 54 52 52 49 49 50 47 40 42 44 46 48 49
42 47 47 45 43 47 47 46 48 56 53 52 46 40 42 42 39 41 39 40 44 43 46 53 59 62 66 63 60 58 59 61 68 66 65 61 58 55 54 50 49 50 46 49 52 55 56 53 59
39 43 48 49 45 44 45 46 47 43 49 52 55 48 42 43 41 40 40 39 39 39 40 46 52 56 62 65 63 59 61 64 66 68 69 70 68 58 56 55 54 52 57 57 58 62 66 69 70
47 44 48 50 47 41 39 40 41 40 45 48 51 56 47 40 42 41 38 37 40 39 40 42 47 53 61 67 69 62 59 62 67 72 78 78 71 70 68 66 64 65 65 63 64 72 79 85 90
51 49 48 49 46 46 42 33 32 37 35 45 50 51 54 51 44 39 40 45 48 45 47 49 53 60 65 68 71 73 69 70 77 78 76 74 74 74 73 73 72 71 71 71 77 84 92 95 93
49 49 47 47 48 49 46 43 35 31 34 36 44 51 51 54 52 48 48 49 54 56 53 54 58 70 76 84 82 77 71 63 63 67 72 75 78 81 79 81 79 81 83 81 86 90 95 83 72
48 47 48 44 51 47 47 47 40 35 34 36 38 43 45 49 51 48 50 52 55 61 62 62 63 65 80 80 86 82 79 75 67 66 72 82 79 85 88 88 86 88 87 85 80 86 77 69 61
48 46 49 46 49 43 47 44 36 37 34 35 37 38 35 39 40 42 43 47 49 58 58 64 67 68 72 87 80 79 70 71 70 66 69 79 80 86 90 90 87 89 85 79 90 73 74 67 67
49 48 46 53 58 51 41 38 32 32 36 36 39 41 36 33 34 30 31 38 45 53 54 66 64 65 72 86 81 70 67 67 61 69 71 79 83 89 88 90 89 84 77 84 81 80 68 68 79
52 51 54 53 54 53 44 41 33 32 31 38 37 38 38 35 33 25 25 28 34 38 43 47 57 58 67 62 58 61 63 58 66 74 79 85 88 91 93 90 81 80 90 89 76 72 74 86 83
53 52 54 52 53 49 47 40 34 33 34 34 35 37 39 36 30 30 27 27 27 29 31 34 36 39 43 47 55 60 60 69 73 80 89 92 94 94 88 78 75 86 90 82 75 76 87 93 83
48 48 50 56 50 52 52 41 39 33 36 34 33 32 34 34 35 37 36 30 24 24 26 27 30 38 50 66 69 71 70 77 81 88 90 93 93 83 80 74 79 86 88 86 85 86 94 86 82

GFSSGP_prec_cthk_042.txt.gz
RH
19 20 19 19 23 20 24 25 26 28 36 47 49 57 66 70 70 75 77 77 80 80 75 72 70 69 69 70 71 65 55 44 35 33 29 39 41 31 29 25 25 25 24 23 23 23 22 23 24
20 20 21 21 18 25 26 29 27 40 39 45 55 57 63 69 77 80 77 75 82 82 81 79 71 68 69 69 67 60 51 37 34 34 34 36 35 30 28 28 29 29 27 27 25 24 25 25 25
20 20 24 24 22 22 27 32 37 37 35 41 50 63 63 75 76 81 81 89 86 86 83 80 74 72 71 68 63 53 44 35 32 36 37 42 35 35 32 36 34 31 30 30 30 30 30 30 30
22 24 20 19 22 21 24 27 32 39 41 40 42 58 71 72 73 75 74 77 80 80 83 78 75 74 69 63 58 49 42 35 33 39 42 43 37 32 35 41 37 34 32 31 32 31 34 33 33
22 23 26 22 21 19 21 24 36 41 47 48 48 56 64 72 70 74 72 71 73 76 79 80 79 79 73 68 57 52 43 40 39 44 44 43 38 37 40 41 36 37 36 36 35 37 37 39 39
27 23 25 27 22 22 27 36 39 47 52 51 54 56 63 69 75 74 71 70 80 84 85 85 84 80 77 79 62 53 46 45 46 49 47 42 42 41 46 39 41 41 42 40 40 43 44 45 47
26 27 28 25 27 41 57 62 59 59 58 54 58 62 64 66 73 74 78 79 83 91 94 91 91 88 87 71 64 59 51 53 51 50 46 46 47 45 41 43 43 45 46 48 44 47 50 52 52
28 30 28 31 47 53 53 59 61 62 63 62 61 59 63 62 70 78 79 80 84 94 99 91 93 94 83 74 64 55 57 58 55 49 50 52 52 46 44 47 46 44 47 46 49 54 56 54 52
28 36 37 41 43 40 51 53 63 64 65 64 66 65 66 67 69 73 80 79 83 87 87 96 98 96 91 84 65 60 61 57 53 54 61 60 52 48 49 47 43 41 48 53 55 54 51 50 44
33 38 40 42 42 42 50 55 64 67 71 71 71 69 68 70 73 75 74 77 83 88 88 87 89 92 89 76 73 71 67 55 57 66 65 53 51 50 45 42 44 48 56 62 60 57 51 49 40
35 41 38 40 43 48 51 62 66 70 76 74 72 74 73 75 79 83 83 83 81 87 88 91 92 94 92 88 80 70 63 64 70 62 50 50 47 46 48 44 47 52 64 67 67 66 60 51 38
42 38 37 38 45 53 62 63 64 62 68 71 73 75 82 86 89 87 86 86 87 92 94 93 93 95 92 88 84 77 78 79 60 50 50 47 50 47 48 52 58 63 65 72 71 67 58 48 36
41 41 41 45 48 61 67 66 60 64 74 74 77 82 87 90 94 89 89 88 86 86 92 95 91 89 86 88 88 85 77 63 45 49 46 50 51 51 55 55 57 59 62 68 63 56 53 44 34
41 50 58 57 56 61 62 60 58 62 60 66 72 88 94 96 99 93 84 74 84 88 92 95 93 93 91 87 81 68 59 44 45 50 50 54 53 52 51 50 51 54 57 56 52 52 49 37 33
43 48 54 59 64 61 57 55 56 56 54 57 63 67 82 85 89 92 80 74 70 81 91 92 88 84 78 67 60 43 43 47 52 56 57 56 52 53 50 52 56 57 51 49 49 49 45 33 35
41 46 50 53 62 57 55 53 56 51 50 55 52 62 70 77 71 76 73 68 63 63 65 66 70 74 65 57 50 50 52 56 63 60 54 59 60 58 57 60 55 52 49 48 49 49 36 34 37
42 44 46 49 59 61 53 53 55 54 41 46 47 42 53 64 62 61 57 61 61 58 55 51 47 50 55 49 45 46 45 49 55 57 60 65 68 72 67 61 53 48 47 46 48 45 35 35 40
42 44 47 50 54 53 55 53 51 54 45 41 47 42 36 52 57 55 58 56 60 63 61 59 56 63 66 61 55 56 54 58 62 65 67 68 72 74 62 55 49 47 47 46 47 40 38 43 47
38 44 46 47 41 48 47 52 52 52 54 44 40 45 43 39 42 48 53 58 60 60 61 61 61 59 65 63 57 51 51 57 60 59 63 67 69 57 54 55 51 48 47 47 49 47 49 51 52
41 41 41 40 39 45 45 42 49 48 53 49 40 38 40 41 42 42 56 63 57 58 61 66 67 69 67 70 66 59 57 55 59 64 68 66 59 62 59 57 54 53 55 59 56 55 55 56 63
45 45 43 41 39 44 44 42 46 45 48 51 49 41 39 39 45 44 44 49 51 50 52 57 64 68 72 78 70 66 62 66 65 68 74 76 72 76 74 70 69 69 68 66 62 61 63 65 72
46 45 42 43 42 45 42 44 42 39 41 43 48 45 42 38 40 41 40 40 38 41 45 47 52 59 63 69 77 73 68 65 67 67 73 76 82 84 77 75 77 77 73 68 67 69 73 78 83
49 50 50 47 46 41 40 37 41 38 31 39 44 47 45 44 38 36 38 39 41 40 44 49 53 59 64 66 69 73 74 73 74 74 79 80 78 79 83 84 84 81 78 76 76 79 82 83 87
48 50 51 50 49 47 42 39 39 34 30 33 40 47 48 50 49 43 38 45 48 48 50 53 55 59 60 72 71 80 84 84 79 71 67 68 71 76 82 90 89 88 82 85 85 85 84 85 80
46 50 55 53 51 50 44 40 40 36 28 30 34 39 45 49 53 56 53 48 52 57 62 63 61 68 67 84 77 82 84 90 86 85 81 71 69 77 90 91 87 88 90 91 90 88 91 83 83
45 47 55 54 51 48 45 41 41 34 32 29 32 36 42 45 49 51 54 59 56 58 60 64 66 69 75 72 75 90 84 85 88 88 79 77 71 79 83 88 88 91 91 88 88 85 80 78 75
49 48 48 52 51 46 41 37 31 30 29 29 31 35 40 39 39 43 46 49 53 57 60 66 68 70 75 76 70 77 69 75 72 73 73 70 76 85 88 91 92 92 93 88 83 76 84 88 76
50 50 50 50 55 51 46 42 37 32 30 27 30 34 38 40 40 39 35 33 36 43 49 58 67 68 68 67 60 71 60 61 64 66 64 72 81 86 91 93 94 93 87 81 73 83 88 91 92
50 50 49 49 51 54 51 44 36 35 36 36 31 35 36 36 36 38 34 29 32 34 40 46 46 48 52 54 54 50 51 65 70 70 73 76 82 90 95 98 94 88 79 70 79 86 87 95 90
47 49 50 51 51 51 52 42 36 37 40 38 36 34 31 35 39 40 39 40 39 35 36 37 40 43 45 49 47 49 65 67 68 66 75 83 88 90 95 91 81 81 75 83 82 85 90 91 96

GFSSGP_prec_cthk_045.txt.gz
RH
15 17 19 20 23 22 23 24 22 34 31 43 42 63 57 44 60 83 87 90 79 66 69 66 71 72 73 72 72 71 68 58 43 35 29 29 34 35 29 29 29 30 28 26 24 25 23 23 21
20 19 20 23 25 23 23 21 29 28 47 64 49 42 43 73 64 70 69 76 86 78 77 75 79 79 74 73 73 72 66 54 36 30 34 32 34 32 30 31 34 33 31 29 27 26 25 25 25
18 20 24 34 30 24 20 28 29 46 43 37 48 49 66 62 61 80 80 80 79 92 92 82 83 82 77 75 74 71 59 47 34 30 35 38 36 31 32 30 35 38 37 34 31 28 29 28 29
21 28 27 20 25 25 23 33 32 37 41 38 45 67 58 52 56 64 68 66 65 79 94 89 82 82 78 74 72 66 53 41 35 34 37 43 37 37 37 35 41 46 40 39 36 33 31 32 32
21 25 29 34 26 25 27 27 31 38 48 62 49 56 55 56 62 61 59 72 70 76 85 82 81 78 73 69 66 57 50 39 35 39 42 47 41 40 38 39 44 47 43 42 40 38 36 38 39
28 28 31 30 26 25 27 28 39 41 60 66 46 55 52 53 64 67 68 79 83 86 78 81 79 75 70 66 59 58 51 43 42 44 46 53 46 41 41 45 48 42 42 43 44 44 44 44 44
26 35 33 28 27 33 43 59 57 64 61 50 61 61 57 60 60 67 71 77 82 86 89 89 95 80 76 66 60 53 50 47 46 47 54 49 44 44 46 50 44 46 47 46 49 50 48 48 46
23 28 32 29 49 53 56 40 51 55 65 44 57 70 64 63 61 64 70 75 81 90 88 88 97 92 81 70 62 62 52 48 52 51 58 51 51 51 56 48 47 49 51 51 50 46 50 49 40
24 32 36 33 37 44 43 52 58 56 49 56 61 70 72 66 63 68 72 77 84 88 87 82 82 96 86 82 73 61 59 57 56 62 59 54 58 61 57 51 49 51 52 48 48 51 50 43 35
26 36 38 37 40 43 46 55 65 55 66 74 69 64 65 66 71 74 75 76 81 85 87 86 85 91 86 81 75 75 66 61 67 66 64 66 64 64 55 51 49 49 50 54 57 56 54 49 41
36 42 41 40 44 42 46 56 59 72 76 94 75 80 69 76 73 77 78 80 83 88 85 87 90 91 84 81 87 77 70 77 72 72 71 71 65 60 52 48 46 50 54 57 65 64 64 56 43
32 43 43 43 39 42 58 57 54 64 70 76 75 75 73 82 82 83 80 84 86 84 87 85 92 96 94 90 92 81 78 73 74 82 80 67 65 56 55 52 54 56 62 67 71 72 62 51 36
32 40 42 44 40 49 56 63 53 53 64 68 71 76 81 85 91 92 89 90 89 89 90 92 97 95 92 94 94 90 79 76 85 82 73 65 64 60 60 62 67 69 68 64 67 62 51 47 33
41 37 54 42 50 52 55 63 54 58 53 54 67 75 85 94 96 96 95 91 82 84 90 97 95 97 97 96 91 80 76 84 85 70 64 62 64 62 65 63 64 58 57 56 53 49 50 44 34
29 35 54 47 60 62 55 71 54 47 53 53 63 70 80 93 85 91 82 83 88 86 90 94 96 97 95 89 86 87 88 80 67 62 59 57 63 64 65 60 57 58 59 53 51 51 48 44 34
31 41 54 50 47 60 56 93 54 48 45 54 49 62 66 80 96 84 72 71 87 90 93 95 92 86 80 81 81 82 79 68 54 54 61 62 63 60 60 60 60 60 55 53 48 50 49 45 37
34 44 54 49 45 57 55 71 48 49 45 48 45 47 65 58 73 73 72 65 63 69 76 83 85 90 90 76 66 62 60 54 60 68 68 64 62 64 66 71 64 59 53 50 50 50 49 44 37
36 38 40 48 70 46 48 59 60 48 48 46 45 42 50 54 55 55 57 58 55 53 53 56 64 76 70 62 58 54 51 56 70 73 71 70 65 64 74 78 62 55 53 50 50 48 47 46 46
40 39 41 43 42 35 44 45 60 53 48 47 47 41 41 44 50 56 54 58 60 60 59 58 57 64 70 64 59 56 55 57 65 69 71 72 72 71 75 66 59 58 56 53 51 57 57 53 53
35 40 37 42 36 32 42 50 44 60 46 51 43 45 40 40 44 47 57 58 60 58 61 60 62 66 73 71 62 55 51 50 53 58 66 68 70 71 63 64 64 66 66 63 60 64 66 58 58
38 45 52 42 52 32 32 37 43 48 49 48 50 41 41 39 39 49 55 58 55 57 60 62 64 64 65 72 70 66 57 57 55 63 67 67 71 71 71 79 80 79 79 75 71 68 68 64 67
46 42 41 40 38 45 47 50 52 49 47 44 48 48 43 39 43 40 44 48 51 52 54 57 61 62 62 65 71 72 68 71 69 65 66 70 80 82 82 87 86 83 86 83 80 78 72 69 75
47 46 41 41 48 47 41 35 45 39 44 51 45 49 49 44 43 38 38 38 43 46 45 46 51 56 61 62 62 72 75 77 76 72 72 72 78 86 83 80 81 85 88 90 87 80 76 80 81
44 46 44 45 47 53 41 38 54 39 36 36 47 50 51 50 49 47 40 38 38 39 40 46 50 53 57 67 66 70 74 74 84 90 92 77 76 76 76 76 79 85 91 93 91 83 81 84 81
43 47 54 53 51 48 54 37 39 51 38 32 40 46 53 52 51 53 54 53 47 43 41 49 56 58 62 70 79 71 72 71 77 94 94 86 87 88 89 83 79 84 87 89 91 88 89 80 83
45 48 54 76 51 46 51 34 38 40 33 31 31 34 36 44 52 55 56 58 62 63 62 60 62 65 67 77 81 72 77 70 66 77 88 87 85 89 91 85 81 89 89 92 93 94 86 87 88
49 46 49 58 49 49 44 37 34 30 28 28 32 33 40 44 46 50 54 58 62 66 66 66 71 74 74 75 85 85 82 70 55 57 71 76 77 78 75 79 86 89 93 95 95 91 89 85 78
50 50 50 48 56 58 39 40 38 41 33 30 29 35 41 42 44 46 49 57 60 57 61 61 66 70 72 69 78 73 72 60 51 52 67 72 74 75 81 84 88 91 92 96 96 89 88 80 79
44 49 47 52 54 61 54 42 47 39 36 36 39 34 34 40 46 46 48 48 48 47 50 50 57 64 62 61 66 65 63 58 56 58 73 70 69 68 74 81 83 84 89 93 86 76 74 77 84
54 46 49 54 52 53 50 44 45 40 37 40 41 39 36 33 41 46 42 41 42 39 44 47 48 57 61 57 53 59 63 65 57 69 64 63 60 56 58 64 77 80 79 94 78 73 80 87 97

GFSSGP_prec_cthk_051.txt.gz
RH
12 14 16 19 23 22 26 27 25 27 30 38 37 41 42 45 46 60 63 70 60 69 70 94 89 80 76 73 70 66 63 56 41 33 30 32 32 31 34 26 27 26 27 25 22 22 22 24 26
12 16 18 22 23 29 30 29 31 38 46 41 37 39 45 48 57 57 53 58 54 53 56 69 98 92 82 80 76 75 68 55 41 34 33 34 33 31 35 30 29 31 30 28 27 26 26 28 31
12 18 23 24 29 33 33 30 31 33 39 44 42 47 55 66 59 55 50 52 50 51 60 65 72 97 93 89 81 77 69 50 40 38 38 37 34 35 34 30 29 30 30 31 32 29 30 32 34
16 22 30 33 34 32 35 41 35 30 35 38 47 61 72 65 55 67 65 59 48 54 55 65 64 92 96 88 83 83 68 49 41 41 41 39 40 39 34 33 33 34 34 36 38 33 33 36 37
23 27 29 33 36 39 40 37 30 31 31 38 42 59 60 52 64 80 76 71 57 52 63 64 79 91 94 98 94 87 67 49 42 41 39 39 43 43 37 37 37 39 40 43 44 39 38 39 39
25 27 36 40 41 44 36 31 26 27 40 44 48 49 44 43 57 77 75 80 61 59 69 71 78 75 76 89 96 86 64 48 42 39 40 43 44 46 42 43 44 44 46 49 47 41 38 37 40
26 29 32 34 35 39 33 33 37 42 42 44 50 53 55 59 60 68 83 91 74 72 74 71 72 72 78 98 97 81 62 43 42 42 43 45 46 49 49 50 50 49 51 49 46 44 40 37 38
24 30 32 39 44 45 42 38 41 45 56 56 58 67 78 78 74 77 96 87 84 87 86 85 88 87 96 98 92 70 48 43 43 43 45 51 51 53 54 55 54 54 51 49 47 42 37 33 34
27 33 38 44 46 45 44 48 45 43 47 55 62 59 54 74 85 83 93 94 84 85 90 85 93 91 94 91 84 65 49 42 44 49 47 58 58 59 58 60 59 62 60 52 51 49 37 35 33
27 32 39 44 44 42 39 41 45 46 50 54 57 59 66 71 82 85 88 87 81 83 90 92 98 89 85 90 78 70 59 54 58 58 55 57 59 63 62 66 68 68 58 55 53 49 49 46 34
26 31 33 40 43 36 34 42 58 67 65 55 52 55 64 75 78 73 78 72 73 80 85 92 86 89 88 82 77 68 67 69 68 61 60 66 68 72 73 75 72 64 59 55 50 55 57 51 40
32 32 30 35 40 34 39 43 54 60 85 56 47 54 64 71 75 69 72 71 70 75 80 81 84 86 91 82 76 74 74 73 69 68 72 73 74 78 78 72 69 65 58 51 55 57 63 58 49
33 34 32 34 35 46 45 50 60 64 73 60 59 57 68 70 80 78 72 73 74 74 77 78 80 80 81 77 78 75 78 70 72 76 79 79 78 79 75 71 65 61 54 57 62 61 62 62 46
31 31 30 32 42 49 53 62 58 66 65 62 56 57 65 68 76 79 75 75 78 80 78 75 78 82 82 87 80 83 83 79 81 80 81 82 80 76 75 71 67 63 60 65 63 59 57 52 41
30 33 23 36 46 51 55 69 63 59 56 57 54 54 61 73 81 82 82 78 80 82 82 86 86 81 83 86 84 81 86 87 85 83 87 83 81 79 80 72 75 77 68 62 58 55 47 42 39
28 28 37 37 42 50 53 62 57 58 54 58 53 52 54 71 70 72 79 79 76 83 86 88 86 87 85 89 87 91 95 93 91 89 83 79 76 75 72 76 72 79 62 56 55 48 45 43 40
32 42 40 43 52 55 52 57 53 60 59 59 54 45 47 58 65 63 69 74 81 83 83 80 81 83 87 88 91 92 90 90 82 78 77 75 73 69 69 68 63 57 57 55 52 50 47 45 42
40 43 42 48 49 54 55 48 53 49 55 45 53 41 47 49 52 50 50 52 66 82 81 79 79 78 82 85 87 88 83 74 75 76 68 65 63 65 64 68 74 65 66 58 53 51 50 50 47
38 43 41 40 48 49 49 45 45 51 60 43 50 44 38 43 44 45 44 43 49 54 64 68 70 70 71 73 67 64 63 65 63 60 58 58 56 60 65 68 69 75 77 57 58 59 60 60 58
44 39 34 46 49 51 52 49 44 54 63 48 43 40 36 37 40 44 44 40 43 46 50 58 63 62 58 54 48 52 53 57 57 53 51 55 60 64 67 66 69 67 70 65 70 73 72 73 76
35 31 31 43 45 47 44 57 53 58 66 65 51 41 39 31 32 39 38 40 37 40 41 43 45 47 46 43 46 50 58 56 52 49 47 51 56 70 79 68 64 60 69 83 81 83 85 85 83
28 32 36 39 42 48 43 46 56 62 60 59 52 50 44 38 31 30 35 36 35 34 35 38 40 43 45 47 46 47 49 52 51 46 50 55 65 63 65 71 75 67 72 86 90 89 87 90 87
30 35 43 42 42 40 44 45 47 53 63 63 60 55 50 43 39 40 39 38 36 36 34 36 37 38 40 43 47 54 62 56 55 58 61 70 69 79 83 70 79 86 87 86 91 89 87 87 90
36 41 42 42 43 46 34 51 54 54 52 54 50 55 47 45 45 40 41 45 46 44 38 37 36 37 40 42 48 59 70 80 77 68 73 79 90 88 85 91 91 80 90 90 87 90 88 92 95
37 43 53 63 56 54 51 53 49 45 37 41 37 41 43 41 42 45 42 46 46 49 45 42 41 41 45 49 50 58 74 73 75 71 74 82 75 75 79 88 93 90 86 86 86 89 90 91 97
39 43 57 69 81 62 50 51 45 39 40 40 41 40 44 43 39 41 44 43 43 39 42 45 46 48 51 56 57 66 75 73 71 78 71 69 73 65 71 78 82 82 86 85 78 77 82 88 86
42 47 41 63 72 74 60 53 47 45 43 41 41 44 45 41 41 40 42 42 44 44 39 40 46 47 50 52 56 62 66 67 74 71 76 69 68 66 60 80 84 71 71 67 67 65 67 66 71
37 39 55 61 75 92 59 54 56 50 44 39 40 36 32 38 46 42 40 40 39 40 49 57 56 48 53 60 63 64 65 64 66 74 68 65 64 70 64 77 74 63 65 64 64 66 65 76 70
43 41 47 60 65 70 63 56 51 48 44 45 37 36 35 34 38 44 45 42 41 48 60 65 69 91 81 71 67 70 71 76 74 87 78 74 77 78 72 76 68 67 65 61 61 65 74 78 68
45 42 42 64 62 69 68 54 48 47 45 42 41 38 34 31 30 29 33 43 46 52 61 69 71 71 59 56 68 80 78 91 78 94 78 71 76 82 76 68 66 68 63 61 64 72 64 66 79

GFSSGP_prec_cthk_054.txt.gz
RH
13 14 16 17 21 23 29 30 31 32 37 37 35 42 47 50 60 63 66 67 71 74 75 74 94 91 81 74 74 73 66 46 36 33 32 31 31 29 29 26 24 23 25 25 25 25 25 25 26
14 15 18 22 28 31 34 31 34 34 39 38 48 51 51 57 62 68 75 75 69 71 71 66 64 77 91 85 82 75 65 47 39 36 34 32 32 32 34 28 27 27 25 29 30 31 29 30 28
14 19 22 28 32 37 36 33 35 38 42 47 47 53 57 61 55 64 66 68 70 65 69 67 67 69 76 88 86 79 68 46 39 38 38 37 37 36 33 30 28 28 29 31 33 34 34 32 30
16 18 26 32 36 38 35 32 35 40 39 39 40 46 55 60 63 61 64 63 59 63 69 73 69 61 67 77 89 87 69 43 41 41 41 42 43 40 33 33 30 31 31 32 32 37 39 36 36
20 26 29 35 35 34 35 42 46 41 40 41 36 43 48 46 50 51 57 61 57 65 66 66 71 76 85 91 97 91 67 45 44 43 45 45 44 43 40 38 35 34 33 35 40 45 44 39 41
21 27 33 35 33 33 36 49 50 47 44 42 41 41 39 41 44 48 51 58 64 65 83 75 81 85 95 95 97 92 59 47 44 46 48 46 47 43 42 41 38 39 40 40 45 48 44 40 38
23 26 31 33 34 38 46 46 48 47 48 48 55 50 45 48 47 52 61 62 79 84 87 82 86 96 97 94 85 93 58 47 47 50 49 47 45 44 44 44 44 46 48 44 46 46 45 42 37
24 29 33 37 40 48 45 45 46 49 51 48 53 52 55 53 54 58 72 66 81 95 89 82 84 84 83 85 91 88 58 48 46 48 51 48 46 48 51 49 49 53 51 50 43 40 42 43 38
26 33 37 41 38 42 45 48 45 48 51 52 52 53 59 58 66 73 76 73 94 99 97 92 87 86 88 87 83 87 59 50 49 48 49 50 51 52 58 56 57 55 56 53 44 42 41 40 33
27 32 34 37 36 48 50 47 43 47 48 54 50 44 49 58 69 85 77 76 95 91 90 96 95 93 93 96 92 86 76 67 55 55 50 51 54 55 58 62 62 65 67 60 51 48 46 39 33
26 27 30 34 38 50 48 46 43 43 45 58 53 46 50 56 73 89 82 75 83 78 86 84 93 90 90 89 89 79 66 58 59 60 58 58 62 61 66 69 70 74 69 58 55 57 48 45 35
26 30 32 31 39 43 43 44 54 57 61 55 46 49 49 54 69 81 81 74 76 76 75 79 87 91 91 93 80 67 58 60 62 64 63 64 68 67 70 72 72 72 69 65 58 52 56 54 42
30 33 35 36 34 41 46 50 52 60 56 51 43 43 47 56 60 70 76 75 77 75 74 79 80 85 88 84 77 69 63 66 68 69 69 70 70 65 67 72 70 70 69 62 53 51 55 58 53
28 29 30 31 37 44 47 52 56 56 51 43 42 45 52 59 65 74 76 73 75 79 78 79 78 78 80 82 71 71 69 66 71 73 73 74 72 68 71 70 66 69 63 58 59 58 59 57 56
24 25 23 34 41 41 49 51 52 58 56 52 42 45 57 72 76 80 82 85 79 78 79 81 85 81 83 88 87 84 75 76 81 79 76 77 73 73 75 68 66 64 61 64 65 60 56 55 52
23 29 36 40 41 43 52 53 47 52 60 55 39 45 50 56 61 68 77 83 79 78 77 86 82 88 88 83 85 82 81 84 85 79 78 77 76 75 72 72 77 79 78 67 60 56 53 48 42
22 35 42 40 40 48 57 52 50 51 47 48 44 43 42 42 48 55 63 77 81 83 83 89 88 89 87 88 90 80 79 78 85 82 79 77 74 75 78 74 75 77 79 61 55 53 51 45 43
34 40 41 40 46 48 59 46 43 54 60 45 44 40 41 38 38 40 48 64 80 79 78 82 86 87 90 92 86 81 78 81 86 81 76 73 76 80 68 68 70 73 62 61 56 52 50 52 52
34 40 40 40 44 50 54 46 44 50 57 53 42 41 34 38 38 38 42 48 61 74 78 77 76 82 89 86 82 78 77 80 79 72 71 70 69 65 64 68 70 79 80 74 63 55 58 61 66
39 41 40 43 47 55 57 52 49 47 54 51 41 40 38 33 39 40 36 40 43 56 60 62 66 69 65 69 77 73 69 68 64 62 62 63 62 61 62 63 67 73 74 75 67 60 64 71 76
39 38 32 43 45 52 50 55 55 50 56 57 51 42 42 32 29 36 36 35 37 41 49 55 57 54 57 59 60 57 56 55 52 51 51 56 58 59 59 64 63 66 66 63 71 76 75 81 85
36 36 34 39 45 49 46 49 49 51 50 56 53 51 45 43 33 32 33 32 32 34 39 43 46 45 46 48 44 45 45 45 46 46 46 43 42 43 49 60 73 79 73 62 69 79 86 91 89
35 36 36 39 41 44 43 45 40 52 58 56 56 57 49 45 42 37 40 37 29 31 34 36 38 39 40 41 41 43 46 47 48 49 48 48 50 57 69 75 75 77 84 87 86 87 88 91 92
35 34 39 44 44 49 40 46 43 54 55 48 54 57 59 48 49 40 37 42 42 36 32 33 33 35 38 37 38 43 50 54 53 53 59 61 61 69 72 80 84 86 86 88 93 97 92 94 91
37 41 48 51 58 53 47 47 38 47 45 41 42 40 46 46 49 45 43 40 44 43 41 38 37 39 42 45 49 52 57 64 71 75 71 70 71 71 66 71 88 90 87 87 91 90 90 86 85
39 41 51 54 67 58 55 52 42 42 44 39 39 38 41 43 45 48 50 49 43 42 43 45 44 43 44 46 49 53 62 71 73 73 77 73 68 74 68 69 71 82 78 81 78 81 78 70 65
41 40 38 53 57 62 62 55 46 45 43 41 40 39 39 40 39 46 49 48 52 49 47 46 43 41 40 43 46 51 59 65 70 75 73 74 64 57 72 70 68 75 78 67 66 69 68 67 65
46 43 51 56 64 59 61 65 57 47 44 42 42 38 42 34 36 40 44 49 47 47 51 54 53 50 46 47 55 63 66 67 68 66 68 84 82 81 75 75 74 78 76 64 66 66 61 58 61
47 45 47 52 57 56 57 57 54 51 44 39 38 42 37 35 33 34 39 41 44 45 51 58 65 73 75 75 66 70 74 78 79 79 71 81 92 91 91 87 80 78 71 66 65 62 57 60 65
47 47 46 55 54 54 60 49 52 47 47 42 43 40 37 36 35 33 32 35 38 40 45 48 56 62 68 67 69 59 72 84 89 93 94 86 70 81 93 88 86 76 69 70 63 61 59 64 60

GFSSGP_prec_cthk_057.txt.gz
RH
14 14 16 16 19 27 35 31 29 29 34 34 38 42 45 51 57 60 68 65 71 72 71 71 73 72 72 76 81 70 67 65 44 45 42 34 29 26 28 25 24 22 20 23 24 24 24 24 20
14 15 16 22 30 35 33 30 31 33 42 41 41 43 49 53 54 60 61 68 73 76 64 70 73 72 62 85 89 81 76 54 44 45 41 35 32 32 31 30 27 25 25 26 27 27 28 28 25
14 17 21 29 34 34 33 31 30 33 39 39 41 46 46 47 53 57 62 65 69 77 72 75 73 68 62 69 83 83 81 58 42 47 44 39 36 34 33 33 32 29 29 30 31 31 31 30 26
18 17 25 33 34 32 30 31 29 34 37 42 44 48 47 48 49 54 62 66 67 67 67 71 69 67 67 76 82 90 85 57 45 45 43 42 40 38 35 33 30 29 29 31 32 32 33 33 33
22 21 27 33 33 29 29 33 32 37 43 47 47 45 50 50 47 46 54 63 63 63 62 67 69 72 74 79 80 84 82 47 45 45 46 46 42 41 39 38 37 34 35 35 36 37 40 40 38
18 20 30 36 32 30 30 33 38 45 50 51 47 47 50 45 45 45 45 53 48 51 58 67 78 82 85 90 94 97 82 58 50 49 49 47 46 44 42 42 41 39 38 40 39 42 46 44 39
22 21 31 33 33 37 34 37 41 44 45 46 46 48 52 50 50 53 56 56 58 62 76 76 80 86 91 97 94 95 85 60 54 60 50 49 49 48 47 43 42 41 44 44 43 44 44 40 38
20 24 31 35 34 32 34 38 43 45 43 43 46 52 49 51 52 55 64 74 77 82 88 93 89 97 92 92 93 89 76 56 52 57 51 49 50 52 49 46 45 45 49 48 46 46 43 37 35
22 27 35 34 32 31 34 44 41 40 44 48 51 54 44 41 51 64 75 81 81 84 85 94 97 93 90 98 92 88 77 63 58 60 52 51 55 56 52 53 52 52 51 53 49 45 42 38 37
24 29 32 30 32 31 36 42 38 44 54 58 56 53 49 45 53 67 79 77 82 96 93 97 98 98 97 94 91 90 78 73 62 59 56 55 58 57 56 59 60 57 53 53 54 51 45 45 38
25 24 27 28 31 27 36 41 48 52 56 59 55 48 43 41 53 71 87 81 80 84 94 98 98 98 89 88 91 87 85 83 71 65 64 55 53 60 63 60 60 59 63 61 61 58 50 46 34
24 24 27 27 27 28 41 42 49 55 58 52 43 39 39 42 46 60 91 83 84 92 89 98 88 85 88 85 85 89 84 78 75 75 65 58 60 66 66 67 66 67 70 67 65 59 53 48 40
28 26 28 29 27 33 42 43 51 56 61 55 42 38 41 49 53 53 65 80 82 88 89 88 96 94 88 87 88 86 75 66 75 76 64 63 64 68 72 70 68 70 69 64 64 63 59 54 46
30 26 26 26 33 40 41 41 47 54 61 58 40 36 51 61 68 64 60 78 76 82 80 78 89 91 90 86 84 78 67 60 66 72 67 65 67 72 72 72 72 74 70 67 64 58 52 54 52
29 21 26 27 36 40 41 44 45 52 60 55 36 38 47 50 60 68 70 70 72 79 98 80 82 85 85 85 80 74 66 71 65 67 71 72 69 71 74 72 74 72 69 65 64 57 52 54 56
28 23 28 32 39 40 46 41 43 53 51 49 42 40 41 43 49 55 69 77 79 80 80 83 83 95 80 83 82 81 74 73 69 71 77 76 72 71 76 76 76 68 65 63 66 64 57 56 55
24 28 35 36 38 41 48 48 40 52 53 48 41 42 40 36 37 45 57 72 78 80 88 83 93 88 79 84 87 86 74 77 76 81 81 80 77 77 82 80 74 65 70 75 66 61 56 55 53
24 31 35 40 39 42 51 48 40 45 50 53 41 40 40 35 38 34 47 68 77 83 82 87 89 86 93 88 87 85 86 83 81 85 84 84 82 81 81 78 72 75 84 84 64 54 54 54 56
24 29 40 40 39 40 45 47 47 41 49 50 39 39 35 35 37 36 38 56 71 77 81 81 89 91 92 88 88 93 94 90 84 83 95 90 84 80 80 76 73 74 73 68 63 56 55 57 60
30 33 39 41 41 42 43 48 46 42 46 52 41 37 34 37 36 34 32 46 58 64 70 74 81 90 93 94 95 94 96 94 92 90 90 87 86 81 80 73 69 71 77 75 76 69 60 62 66
32 39 38 39 37 38 42 44 48 41 46 48 46 38 33 31 37 33 31 33 45 54 56 57 62 67 78 85 88 85 81 78 77 78 81 78 73 72 69 67 66 67 71 75 77 73 69 71 73
40 38 38 36 36 41 40 44 39 42 44 48 45 44 37 33 31 27 27 27 29 38 45 45 47 55 59 62 64 64 64 63 67 68 71 67 64 65 66 66 64 63 65 68 68 65 70 76 83
37 44 40 40 40 42 42 44 36 44 46 45 50 46 41 35 36 35 33 27 24 28 33 36 37 42 47 50 54 56 54 54 55 59 59 55 54 52 54 56 55 60 70 85 82 80 79 80 84
41 45 41 46 45 47 41 43 38 41 39 44 46 49 46 40 37 36 39 38 33 25 27 31 32 32 38 44 49 51 52 55 55 56 56 56 58 56 59 59 64 72 82 85 85 90 90 95 96
46 46 51 50 55 49 45 46 37 29 32 39 38 42 42 44 40 36 36 37 38 38 34 34 31 30 33 35 39 45 52 58 59 59 57 58 58 59 59 56 61 81 87 92 94 91 89 90 89
50 50 54 51 57 47 48 47 39 36 37 37 35 35 39 42 42 41 40 41 37 37 36 38 36 37 39 40 40 41 46 51 54 60 64 60 63 66 64 72 74 68 85 85 83 81 79 77 78
51 55 47 55 58 61 50 41 34 39 37 36 37 35 37 40 41 41 44 45 47 45 42 40 38 38 38 39 42 46 48 54 57 63 70 72 75 77 70 78 75 72 75 88 80 73 71 74 67
51 54 58 59 64 61 47 44 42 44 42 40 38 39 38 43 40 42 46 49 53 51 50 51 50 44 42 40 40 41 48 53 59 66 71 76 77 85 86 76 78 83 83 83 85 76 70 67 66
53 53 54 56 60 59 55 45 38 44 46 45 38 33 36 38 33 35 37 42 46 51 52 57 60 62 61 59 58 61 59 59 66 65 70 73 76 82 92 92 87 86 88 89 88 81 72 69 66
51 56 56 63 60 61 59 39 37 44 42 44 43 37 37 33 31 32 33 36 39 43 47 45 52 60 67 68 72 75 78 72 74 77 79 84 84 79 87 92 87 85 89 89 89 80 76 70 66

GFSSGP_prec_cthk_060.txt.gz
RH
14 16 15 16 19 26 29 28 26 28 31 33 34 36 37 45 46 46 52 58 68 68 60 61 65 75 71 75 68 61 58 59 72 66 57 49 44 39 34 31 27 28 23 20 22 22 20 19 18
15 16 17 22 26 29 26 25 24 26 30 36 39 43 44 46 50 51 58 58 70 79 69 72 73 70 72 70 64 63 64 66 65 58 48 47 44 35 30 30 29 26 25 27 27 25 22 20 20
16 19 22 27 29 29 27 24 24 26 33 39 40 45 46 49 51 52 55 59 65 73 74 75 73 77 78 69 68 66 68 68 57 54 46 41 37 33 35 32 32 29 28 31 32 28 24 24 23
20 19 24 29 28 28 26 27 28 32 35 39 42 45 46 44 46 50 52 57 65 71 78 81 78 80 78 72 73 66 71 74 50 51 45 39 39 38 37 36 36 32 29 29 31 27 29 28 25
23 23 26 29 30 29 29 27 31 36 38 40 42 43 47 48 47 49 55 55 61 72 70 72 68 73 80 77 73 69 73 68 57 55 52 41 41 42 39 40 39 35 35 34 33 33 31 31 32
22 23 29 31 29 29 28 29 32 35 36 39 40 42 40 42 49 51 52 53 51 61 68 71 70 72 75 70 70 74 81 70 60 56 41 42 44 45 44 43 42 40 38 38 38 38 36 39 39
24 25 28 29 28 27 27 29 32 35 41 43 46 48 47 51 50 51 55 54 57 61 66 71 66 72 73 79 81 82 93 92 65 61 43 45 45 45 47 46 47 45 45 42 42 42 42 42 41
25 27 27 28 27 27 26 27 28 40 45 50 59 61 61 60 48 43 52 61 62 63 71 72 82 92 92 84 82 87 92 81 70 54 47 45 43 46 49 51 51 50 48 46 45 45 42 42 38
27 30 31 28 27 26 26 27 30 40 49 55 57 57 57 53 48 47 51 62 75 74 85 92 96 96 95 93 93 95 90 86 77 62 57 53 50 49 51 55 56 52 50 51 52 52 46 42 38
29 30 30 26 27 27 24 27 34 44 54 57 54 48 46 44 44 48 63 80 82 84 91 97 99 99 98 96 94 89 91 89 88 71 62 57 53 51 55 61 58 54 53 53 50 51 48 46 39
30 29 28 27 27 27 25 32 40 48 55 53 51 47 40 41 44 52 62 84 85 90 98 99 98 99 98 97 95 90 88 92 93 81 58 54 55 56 60 59 55 55 51 56 58 56 53 45 41
31 27 27 24 25 28 29 35 42 46 50 56 59 45 42 47 58 54 61 84 85 92 98 98 96 93 91 98 96 93 85 90 95 83 64 61 61 66 66 58 63 54 54 59 61 60 59 53 46
31 29 29 27 24 27 34 38 43 45 51 57 63 49 47 53 64 71 63 74 81 83 94 97 91 89 89 89 87 88 90 89 90 85 70 67 70 68 64 65 64 63 64 67 66 65 62 56 51
33 32 31 28 25 29 36 39 41 41 50 55 57 46 48 52 62 71 73 64 68 81 87 95 98 95 92 93 91 91 89 85 87 91 85 74 69 68 70 73 75 71 71 70 67 64 61 63 63
34 34 33 25 22 31 35 40 43 42 45 47 50 49 46 47 54 64 69 74 73 84 88 86 88 97 93 93 90 83 83 80 81 85 88 73 76 78 74 71 78 76 74 73 72 70 67 64 60
36 37 34 22 26 33 36 40 40 42 45 49 48 46 47 42 42 49 61 70 77 76 76 89 96 95 92 90 88 93 87 79 79 81 83 77 82 81 76 77 76 78 74 71 71 70 64 59 56
41 41 32 29 28 35 40 44 42 43 50 53 49 43 43 41 39 40 48 61 74 75 80 92 84 85 90 90 89 90 81 73 84 87 84 82 84 81 80 77 75 77 73 68 67 69 64 59 60
44 35 31 34 32 37 42 43 40 41 47 53 46 40 38 40 38 39 45 58 77 83 86 84 87 86 95 85 86 83 81 80 84 88 85 84 81 80 80 80 78 79 73 70 72 70 70 62 64
38 35 29 31 36 36 37 44 39 40 44 49 48 35 34 37 37 37 43 56 71 79 87 90 88 90 91 89 85 80 83 82 82 83 82 82 85 82 83 83 79 78 76 78 78 75 70 64 63
42 39 33 32 36 39 37 39 38 41 41 47 48 38 32 35 40 38 37 49 60 67 77 82 86 88 88 90 94 86 85 88 83 85 84 86 84 86 85 82 82 83 82 82 77 74 67 65 59
46 39 32 36 39 38 37 35 37 38 40 45 46 41 36 31 35 40 34 38 51 55 57 67 76 85 93 92 94 91 87 87 86 92 88 85 87 93 89 86 89 84 79 74 70 69 68 66 58
48 34 33 39 43 46 39 43 33 34 38 42 42 45 40 33 30 31 30 28 34 47 50 51 57 67 81 92 96 94 89 88 91 91 89 90 86 93 81 86 82 74 70 70 74 73 74 74 71
44 35 44 46 46 42 37 41 33 37 35 37 41 43 41 37 33 36 34 25 25 31 37 40 48 51 59 67 71 74 75 77 81 79 77 77 80 81 77 76 73 69 67 70 67 67 71 74 75
42 47 52 53 47 51 39 40 37 32 33 32 36 41 43 42 36 34 40 36 24 23 28 32 35 44 47 49 52 55 58 57 61 63 62 64 63 65 65 67 65 65 65 64 61 70 86 91 91
49 56 64 61 62 56 42 43 34 30 30 34 34 35 36 41 39 37 34 37 37 30 26 29 30 33 40 43 50 54 51 49 50 50 53 54 55 56 60 65 69 69 69 67 68 86 90 95 97
53 58 67 62 64 51 49 48 33 34 30 33 35 33 31 32 38 39 39 38 37 35 36 33 35 35 38 40 42 44 50 54 54 58 57 55 58 63 66 66 64 59 57 58 78 88 95 91 90
53 60 57 65 69 70 55 41 30 27 29 33 34 33 31 32 31 33 37 40 42 41 39 37 38 38 39 42 42 42 45 49 52 55 59 60 59 60 61 63 59 62 67 64 75 89 91 88 79
48 54 65 68 74 76 60 51 35 31 32 34 35 35 35 37 38 37 34 39 44 49 49 46 44 41 40 39 40 42 45 47 53 55 56 59 64 64 64 68 74 75 80 84 80 79 88 90 82
52 54 56 59 67 66 65 56 34 32 36 40 38 36 35 35 36 36 34 35 42 48 50 51 51 52 51 49 49 50 50 56 55 54 54 69 71 73 81 86 90 92 90 90 92 94 92 90 90
51 56 55 65 64 68 66 49 36 36 44 42 42 35 32 32 32 30 29 31 33 36 36 43 53 54 57 60 62 61 64 62 69 69 65 69 73 78 80 83 86 95 92 87 89 88 92 94 92

GFSSGP_prec_cthk_063.txt.gz
RH
13 16 16 18 18 21 24 22 22 22 25 30 36 36 35 39 44 47 48 50 49 55 59 66 65 66 62 69 72 75 68 65 65 68 63 64 56 48 35 33 30 32 30 21 20 23 24 23 17
14 17 19 21 23 23 22 21 21 22 25 31 36 41 43 41 44 47 50 53 58 65 74 74 69 68 68 71 75 67 65 61 61 65 66 59 49 40 36 35 31 32 25 21 21 21 20 19 19
16 20 22 25 27 24 21 22 22 24 25 30 35 40 40 37 40 46 51 55 62 66 79 76 68 65 65 66 73 72 61 54 60 63 68 55 43 38 37 35 33 30 28 27 25 23 22 20 20
18 20 24 27 28 25 22 22 24 27 29 33 37 40 41 40 40 45 50 59 57 67 66 76 84 84 80 76 73 65 62 62 65 67 67 48 44 36 34 33 37 37 39 35 27 25 25 24 22
21 23 24 27 29 27 24 24 26 27 31 33 38 35 40 41 43 45 52 57 59 63 70 76 76 65 79 75 68 66 68 66 67 68 66 45 37 32 37 40 38 39 36 31 31 29 28 26 25
23 24 26 27 29 26 23 23 25 30 33 36 43 45 46 47 49 54 53 58 61 68 68 68 71 76 77 72 75 72 76 72 71 63 49 65 36 40 42 40 39 40 40 37 37 34 34 32 29
22 24 24 29 30 25 22 24 27 27 32 40 46 53 55 54 54 53 53 56 65 84 82 72 74 72 71 72 75 82 83 80 73 71 54 60 39 48 43 41 42 45 44 45 44 40 40 35 35
25 27 28 28 29 23 22 25 27 29 34 43 49 53 53 49 51 52 47 49 58 73 83 80 78 75 78 72 77 83 90 80 73 74 64 69 41 55 45 44 47 50 51 48 45 44 44 41 39
26 29 28 27 29 22 23 24 28 29 39 47 50 52 48 40 38 41 39 43 57 67 80 89 84 86 85 79 92 91 90 84 76 74 66 54 45 50 48 47 50 53 55 51 49 50 48 43 40
26 28 28 28 27 23 24 26 27 34 42 49 52 51 48 36 37 40 41 51 73 89 91 92 90 89 91 94 95 93 91 84 86 79 68 54 47 47 52 51 54 57 57 54 51 54 50 46 40
27 27 28 29 28 27 25 28 31 39 42 48 50 53 54 36 43 53 62 61 78 90 91 89 98 97 98 97 97 97 98 96 95 87 68 60 52 54 54 57 60 62 59 56 52 53 50 51 45
28 28 30 28 30 29 25 28 33 43 42 46 50 54 52 39 46 57 67 69 84 92 95 98 98 96 98 98 97 95 97 96 94 79 68 63 60 57 58 62 62 66 58 58 57 58 56 50 47
28 29 29 28 30 29 25 31 37 43 42 48 51 54 48 42 44 60 69 73 80 95 94 96 97 98 98 95 93 96 94 95 93 89 70 65 61 60 66 65 68 61 63 61 62 66 61 58 55
29 30 30 31 31 31 26 32 39 38 42 48 48 44 47 42 43 54 65 61 69 81 96 92 93 94 94 95 96 96 95 90 91 90 72 69 67 66 65 69 64 62 66 66 67 67 66 65 59
33 34 32 33 34 30 25 32 38 40 45 49 51 48 47 41 39 46 59 64 70 80 95 98 94 94 94 93 93 94 95 96 93 86 71 70 73 72 76 69 68 69 71 76 76 71 68 65 65
39 38 37 30 31 26 26 30 35 41 46 52 55 52 44 42 40 39 46 63 67 71 86 93 86 98 96 94 96 91 92 94 93 89 76 77 79 81 77 73 74 75 77 79 78 79 73 62 62
43 41 36 32 29 29 30 31 36 43 45 49 54 50 42 41 39 38 40 48 66 74 90 84 86 93 94 93 95 94 95 94 93 88 86 81 84 83 80 82 81 82 81 79 78 80 77 70 64
44 44 37 34 33 34 32 31 34 42 43 46 51 50 40 38 38 37 38 49 64 79 78 76 91 89 91 91 88 88 89 92 93 90 87 82 86 86 86 86 85 83 80 77 75 75 75 73 68
42 42 37 33 33 31 32 32 33 38 44 45 47 49 41 36 36 39 37 47 62 81 80 87 90 97 84 92 84 80 88 87 92 92 89 86 86 89 89 86 85 82 82 79 77 82 82 73 68
42 40 38 36 35 35 34 31 30 37 41 41 43 45 45 36 35 41 37 42 53 74 80 85 88 87 89 92 90 90 90 83 85 91 92 87 88 89 88 86 83 85 84 81 83 82 81 73 68
44 43 44 39 35 39 37 31 29 32 41 40 43 46 44 36 31 33 32 35 48 51 65 77 83 85 83 89 94 90 90 88 87 90 90 89 90 90 88 85 86 90 86 85 83 82 82 74 72
42 44 45 41 36 40 38 36 29 27 33 35 39 42 45 39 33 30 30 28 35 46 47 53 61 72 83 90 92 93 91 86 88 90 94 90 91 87 89 87 86 92 89 86 87 84 77 70 70
41 47 47 39 41 46 40 37 27 28 29 31 34 39 40 40 34 32 35 25 23 33 38 40 49 58 70 78 92 94 87 87 90 89 90 91 92 91 90 88 90 91 84 86 80 74 74 75 76
45 48 46 43 52 54 41 38 28 29 29 30 34 37 40 43 40 33 36 37 23 23 29 32 38 46 50 59 67 74 73 74 77 82 82 86 87 87 84 83 86 84 84 82 77 73 71 71 69
47 49 51 57 62 56 47 41 28 27 27 29 35 36 38 40 41 42 34 34 35 25 25 30 33 36 41 48 53 57 60 62 63 67 69 76 76 79 77 77 76 75 75 74 72 69 67 65 69
48 48 55 61 63 57 55 45 30 26 28 32 33 38 37 36 36 37 37 32 31 34 30 30 31 33 35 39 46 53 54 53 55 58 58 63 66 66 65 66 68 66 66 67 68 68 69 69 75
53 53 49 61 69 65 56 47 36 26 26 31 36 39 38 36 33 32 37 38 37 33 32 32 32 33 37 40 42 45 47 50 51 52 59 61 61 61 62 62 61 64 67 66 64 63 66 70 78
52 53 57 62 62 67 60 55 43 32 28 29 34 37 36 38 37 35 36 35 36 39 39 38 36 35 35 38 41 42 43 45 48 51 55 60 61 64 63 64 64 66 67 62 60 61 65 70 79
51 52 54 55 59 60 59 53 47 39 28 34 37 40 37 38 38 39 42 41 39 41 44 46 43 42 43 42 44 45 48 51 53 54 58 56 58 58 58 60 61 62 61 63 67 76 91 94 92
55 50 50 56 64 67 63 52 45 45 35 34 41 40 41 39 38 36 39 39 37 38 40 40 43 43 45 49 52 53 51 53 59 60 63 63 61 64 66 70 71 70 75 83 92 92 92 95 95

GFSSGP_prec_cthk_066.txt.gz
RH
11 13 15 18 20 18 20 21 18 19 21 23 29 29 29 30 31 38 38 34 40 45 52 50 54 61 64 60 62 68 76 76 76 72 72 71 59 51 50 32 27 29 32 28 21 20 22 20 22
12 15 18 20 22 21 23 21 19 19 20 24 29 32 33 34 35 39 39 39 44 51 58 57 62 66 65 62 62 75 76 77 74 72 68 70 65 53 45 34 28 30 29 22 22 20 20 22 23
13 17 22 23 22 22 22 22 20 21 21 23 30 32 36 37 36 39 39 43 47 54 61 70 72 75 68 63 71 78 74 74 72 71 69 73 71 54 38 35 29 31 24 22 25 20 20 22 25
15 19 21 23 24 26 22 23 22 22 24 27 31 35 39 38 40 42 43 45 48 60 63 73 77 81 91 81 70 74 72 72 71 70 67 72 66 52 39 35 30 30 26 26 22 20 22 24 23
17 21 22 22 26 26 23 21 22 23 26 31 33 38 44 47 47 47 48 50 54 60 74 85 77 85 71 98 90 68 67 68 67 68 67 72 61 51 40 36 32 30 29 27 26 27 28 27 26
21 22 23 22 27 28 23 21 22 23 28 30 34 39 45 48 52 53 53 55 60 62 76 83 80 75 68 86 88 75 66 66 67 73 69 70 57 49 37 37 37 38 33 31 30 30 30 28 27
21 21 21 22 26 27 25 21 23 24 26 31 37 40 46 49 49 50 52 59 57 61 73 84 86 75 71 79 90 84 73 75 76 76 74 68 64 40 37 42 42 44 37 37 35 34 33 31 30
21 21 24 23 26 28 25 21 23 26 27 32 38 40 47 50 42 38 43 49 54 57 67 78 77 81 72 81 81 85 92 88 82 83 75 64 72 46 41 41 43 42 41 42 42 40 35 35 33
20 23 25 24 24 27 27 22 23 26 28 35 38 42 49 48 39 40 43 45 44 48 56 68 85 90 86 81 81 76 79 86 92 81 73 65 69 55 45 44 46 47 47 48 47 42 40 40 38
22 24 25 24 25 27 26 24 23 25 29 37 40 45 48 50 46 40 48 53 58 56 65 82 80 84 82 93 77 83 83 91 94 81 78 78 83 56 60 45 54 55 54 55 51 46 45 49 42
22 24 25 26 27 28 28 26 25 26 29 38 41 47 49 55 41 40 49 60 67 67 74 89 92 94 89 80 82 91 92 99 95 85 89 85 88 64 54 51 59 61 62 59 53 49 50 53 51
24 26 25 27 28 29 30 29 24 28 33 38 41 46 49 44 42 43 55 66 70 74 85 92 90 93 98 97 95 93 97 98 93 95 85 84 80 54 58 57 64 67 67 62 59 54 51 52 53
25 26 28 28 29 29 32 30 23 31 37 40 45 44 42 42 39 40 56 63 69 71 90 91 91 95 93 96 99 99 98 96 96 93 92 80 70 57 58 62 70 71 72 68 60 55 55 57 54
26 28 28 28 28 29 34 29 26 32 35 44 46 46 43 41 36 38 50 60 60 72 82 89 94 95 96 96 98 97 97 93 96 96 89 80 66 62 64 66 71 70 72 68 65 66 64 64 61
28 31 31 32 30 31 35 25 25 31 38 47 46 48 45 39 35 37 41 56 62 63 76 87 94 97 99 97 98 98 98 99 99 97 85 76 64 65 70 73 72 70 68 67 71 70 68 67 66
32 34 36 36 31 32 31 19 29 36 40 45 44 49 46 38 36 37 37 44 56 70 80 88 91 94 97 98 98 97 98 98 97 95 82 72 69 70 77 75 76 71 67 72 74 75 74 71 68
36 35 38 37 32 35 32 22 35 37 39 42 45 48 49 40 34 34 36 39 54 66 73 79 89 97 97 97 98 98 97 97 94 90 85 72 73 79 81 77 74 71 74 78 80 79 78 74 68
38 41 37 38 36 33 34 26 28 33 38 41 43 46 47 42 36 33 35 36 53 69 79 87 85 84 94 96 97 98 97 95 95 91 85 76 82 86 84 79 77 76 81 84 81 79 80 81 75
38 38 37 36 37 33 33 26 25 31 35 40 42 44 44 42 33 32 36 34 50 72 82 79 75 91 92 93 94 94 96 96 93 94 89 78 83 85 84 81 80 82 86 85 81 77 77 81 85
43 39 37 38 39 35 31 31 25 30 31 38 46 45 45 46 34 32 35 34 45 66 78 78 76 86 87 81 87 85 86 97 95 90 89 84 84 86 88 87 88 87 86 82 81 81 79 85 80
44 41 41 42 42 38 35 33 28 28 28 32 40 42 44 46 35 29 31 30 40 49 67 77 79 83 86 83 87 91 84 89 95 89 85 82 81 86 90 90 91 88 86 84 83 83 82 85 82
46 44 43 42 42 37 40 36 32 30 28 28 34 37 41 42 39 31 32 28 33 38 48 55 67 77 82 86 86 89 81 83 92 92 91 84 84 90 92 91 90 87 87 87 85 85 82 84 90
45 46 46 45 42 39 37 39 28 26 24 25 30 32 38 38 43 32 33 32 26 33 33 38 49 55 66 78 85 87 91 89 93 93 89 86 86 94 93 92 90 88 89 89 88 86 83 79 85
47 48 48 47 45 45 40 41 31 25 26 27 30 31 35 40 45 38 33 35 31 27 30 32 36 43 53 67 82 92 93 94 91 87 85 90 95 94 92 93 91 89 90 87 85 90 92 82 80
48 47 53 53 53 42 42 45 35 27 25 27 30 31 35 38 45 45 35 33 31 31 29 29 31 35 41 50 59 69 78 75 78 74 74 81 88 92 91 92 91 88 88 89 87 92 86 78 75
46 45 48 54 53 49 50 47 37 30 27 27 30 31 34 39 41 42 41 32 32 33 31 31 33 35 36 38 46 53 55 56 62 61 69 74 75 77 83 84 85 84 84 83 83 87 83 75 76
51 51 49 54 59 55 51 43 42 32 28 28 30 35 37 39 36 41 41 37 34 35 35 33 34 35 37 38 40 45 48 50 54 54 58 63 65 70 74 77 75 74 73 73 74 78 77 72 76
56 54 55 55 62 62 53 47 47 40 33 29 34 39 39 39 38 40 39 42 41 39 36 36 36 36 38 41 41 40 43 47 50 51 50 52 56 60 63 66 66 68 70 70 72 72 70 70 71
58 57 56 54 53 57 59 52 46 47 41 31 35 36 38 39 40 40 42 45 46 45 42 39 40 42 40 40 44 47 49 50 50 56 55 59 62 60 57 63 66 67 68 70 71 70 71 68 64
55 56 56 58 62 58 60 56 47 50 47 35 37 38 40 41 41 41 43 46 48 44 43 43 44 45 43 42 43 43 47 51 55 58 60 64 64 66 65 65 64 62 65 68 68 69 70 69 71

GFSSGP_prec_cthk_069.txt.gz
RH
10 11 15 18 22 21 22 25 22 20 23 24 20 23 29 31 30 44 51 37 29 42 44 48 50 54 57 60 59 59 59 63 76 73 73 72 69 63 46 31 39 30 29 26 23 23 22 24 22
13 16 18 23 20 24 21 26 25 24 21 18 20 23 27 37 45 41 38 32 34 41 45 52 54 57 62 64 61 61 59 68 78 77 75 74 74 67 51 34 36 35 29 23 23 25 21 22 25
13 16 21 24 24 23 24 26 25 23 20 19 24 35 33 39 45 37 36 37 35 42 47 57 60 62 66 68 64 67 61 67 76 76 74 72 74 69 57 41 34 34 26 21 24 22 21 24 27
17 18 19 19 23 29 25 26 25 21 28 25 25 28 49 44 38 42 42 44 43 46 51 48 59 66 74 74 80 74 75 73 78 75 73 72 72 71 56 43 36 30 23 24 27 21 21 25 26
16 20 22 24 24 26 27 26 25 20 23 28 32 34 46 50 39 43 45 48 49 52 58 54 61 76 84 72 93 94 84 77 78 73 71 71 72 75 60 46 36 28 23 26 25 22 23 25 27
18 19 22 24 24 28 28 27 25 22 27 32 36 40 41 39 38 41 40 45 54 53 59 63 70 76 88 93 84 74 98 80 74 71 71 68 68 73 64 43 34 28 27 28 26 26 27 28 27
18 23 23 21 21 26 31 29 24 24 28 34 43 39 38 42 42 41 39 40 45 47 55 54 67 79 81 75 76 83 96 83 72 70 71 67 63 60 60 41 35 32 29 30 29 28 30 30 29
20 22 20 22 23 23 31 28 26 26 27 33 26 32 43 54 43 47 39 38 37 40 48 50 58 73 73 64 75 83 98 90 77 74 76 75 68 68 53 44 43 35 34 34 31 32 33 33 32
21 21 20 22 27 25 30 29 26 27 22 29 32 34 38 42 47 51 47 42 37 41 45 45 49 67 80 75 70 93 90 98 90 78 85 79 71 75 56 56 49 39 40 36 36 37 37 36 32
20 19 19 25 26 25 28 28 32 30 23 32 38 43 44 46 51 53 41 40 44 52 55 62 63 67 72 84 77 89 98 91 98 93 86 84 72 85 60 54 47 43 44 42 43 42 40 38 35
20 19 21 26 26 26 28 28 29 33 28 33 40 40 45 46 50 42 39 42 55 66 66 66 72 78 81 82 88 89 87 97 90 94 87 78 80 87 72 56 48 50 48 49 48 46 45 45 47
21 19 23 25 27 27 28 28 31 33 27 30 35 37 44 46 41 38 34 43 58 66 73 75 77 85 87 81 82 89 84 90 93 98 95 90 88 88 76 64 56 53 53 55 52 52 58 54 47
23 21 25 26 27 27 28 28 32 34 26 31 37 41 45 45 40 38 33 38 59 65 70 75 83 84 84 93 92 91 96 96 97 95 91 91 97 93 72 68 61 58 61 61 59 65 59 55 53
23 24 26 26 28 28 29 28 34 31 26 33 37 45 48 48 38 36 33 35 50 61 61 74 81 83 88 87 91 96 96 98 99 94 94 95 97 87 78 76 71 65 68 68 67 68 59 57 59
26 25 26 28 29 29 29 30 33 25 26 33 38 44 47 47 40 35 33 34 38 53 62 66 81 89 90 92 94 93 94 96 98 97 98 97 92 87 82 86 75 68 75 73 75 65 64 65 66
26 26 28 29 33 34 33 34 28 28 29 34 41 44 45 47 40 33 33 33 35 49 62 65 86 90 94 94 94 95 98 98 98 98 97 94 84 76 74 76 76 76 79 77 77 72 70 70 69
30 30 31 34 36 35 34 37 33 37 30 33 42 42 43 44 41 32 31 33 32 47 61 69 74 92 94 97 98 98 97 99 99 97 96 94 83 72 69 75 80 77 76 80 81 77 76 76 74
33 32 35 38 39 35 34 40 31 37 35 32 39 44 45 43 42 34 29 33 29 48 68 73 75 88 91 95 95 97 96 98 98 95 91 88 84 78 76 81 82 77 75 79 82 82 83 82 78
37 38 40 41 38 36 36 37 38 35 39 33 37 40 45 44 43 35 28 31 32 47 69 74 80 83 87 93 95 94 96 98 98 95 89 87 86 82 80 84 81 78 80 83 87 85 86 84 83
40 38 40 41 38 35 36 32 32 29 36 38 39 41 43 43 45 36 27 27 32 46 65 74 76 76 89 89 91 92 94 96 96 94 90 91 85 79 79 80 79 82 83 89 87 85 82 84 84
48 45 43 44 41 38 37 36 36 31 31 34 31 31 42 43 45 38 30 27 30 41 56 72 73 72 83 82 79 84 86 91 91 90 90 87 84 84 85 83 83 81 83 89 87 84 81 81 82
50 46 46 45 44 40 37 34 38 35 38 37 34 30 33 41 40 37 31 29 24 32 45 54 65 75 79 82 82 81 87 84 84 85 89 87 80 80 81 85 85 86 88 89 86 84 82 86 92
52 52 49 48 46 44 38 35 35 35 34 34 27 31 35 38 37 38 31 30 27 27 31 39 49 55 61 69 79 81 83 93 88 86 87 90 83 83 85 87 88 87 87 88 86 86 83 84 90
52 54 52 50 49 48 40 41 38 37 36 32 28 30 38 40 38 42 37 31 31 31 27 30 36 44 50 58 70 84 87 88 87 88 88 88 87 85 87 86 89 90 92 88 90 92 90 92 89
50 54 56 57 55 49 43 41 37 38 34 30 31 32 37 37 38 44 41 34 31 31 30 29 30 33 40 46 56 70 85 87 88 89 94 86 83 84 85 89 89 93 91 94 89 90 89 91 85
54 54 53 59 59 47 46 44 43 43 39 34 29 31 32 35 39 44 41 37 33 28 29 31 31 33 36 39 44 51 58 66 67 71 76 78 74 76 81 87 91 92 93 90 92 85 87 80 79
56 52 49 53 61 58 50 45 45 46 36 31 32 35 35 33 40 42 41 38 34 31 29 29 30 36 35 37 40 45 49 52 55 56 58 61 62 68 70 74 77 86 87 85 85 83 79 78 78
61 57 54 52 67 67 55 50 48 43 43 38 36 42 39 37 41 40 40 40 37 33 34 33 32 31 37 37 39 42 45 47 50 49 48 49 51 56 61 67 70 73 73 74 74 72 73 76 79
62 59 56 55 55 60 59 56 50 47 49 46 45 41 39 42 42 42 43 42 42 41 37 36 34 33 37 37 39 43 47 50 54 54 54 54 49 49 54 56 58 62 66 67 68 66 69 72 73
66 61 60 61 60 53 59 65 49 49 53 50 48 39 39 39 44 43 46 47 46 47 43 38 37 37 40 42 38 38 41 46 51 55 60 62 63 62 64 66 63 57 59 62 62 65 65 67 70

GFSSGP_prec_cthk_075.txt.gz
RH
9 8 12 16 20 20 26 24 24 24 26 24 22 25 25 22 22 36 46 41 36 35 32 27 23 29 35 40 49 48 56 69 62 77 55 53 46 38 32 34 30 26 30 29 28 26 24 26 28
10 12 15 19 21 25 28 23 26 28 25 24 24 25 22 26 30 37 34 34 32 25 22 22 24 29 38 45 54 53 53 59 72 61 61 59 57 49 41 36 36 36 38 32 32 29 28 28 27
10 15 17 21 23 21 27 24 29 27 23 25 24 22 25 31 36 38 36 32 27 23 28 29 30 33 38 48 52 70 74 65 61 69 61 63 65 57 50 43 42 39 37 30 26 30 30 30 30
12 17 18 20 19 15 19 23 26 26 25 27 25 25 29 34 33 31 34 30 24 23 27 30 33 36 41 51 57 64 71 78 82 67 70 61 65 67 60 50 46 39 35 31 25 27 30 30 32
14 18 21 20 17 17 22 29 30 29 26 27 29 29 28 32 33 34 31 26 25 27 26 26 36 41 42 51 65 75 79 93 78 77 69 77 66 81 68 56 48 42 34 28 24 28 31 30 30
17 17 21 21 16 18 21 23 29 31 27 24 26 28 34 36 34 34 31 32 28 32 33 31 36 45 48 50 69 89 96 98 88 98 93 81 74 76 70 62 50 44 34 28 29 31 29 29 32
18 20 21 19 17 18 21 26 30 30 27 26 29 33 40 39 35 31 30 28 32 38 37 35 34 39 48 53 61 73 89 85 92 85 98 94 81 74 71 62 54 41 35 31 31 31 31 31 32
19 22 24 20 18 17 22 27 29 29 28 28 28 30 40 35 34 32 27 32 35 35 33 30 35 42 53 59 66 75 81 82 90 91 90 94 89 72 68 67 51 42 35 30 32 31 27 31 37
22 26 24 19 18 15 24 29 33 32 30 28 29 30 30 35 33 34 37 36 36 31 29 32 41 46 53 65 61 66 77 78 81 86 87 96 88 68 60 71 61 42 33 33 31 27 29 35 40
23 23 21 17 16 19 24 29 31 32 29 28 29 32 33 36 36 34 37 35 35 34 31 36 53 66 70 68 68 64 76 81 84 84 86 98 87 66 55 63 63 49 36 35 30 30 34 39 43
23 21 20 18 18 23 26 27 29 31 33 30 34 36 36 39 34 32 36 35 37 33 27 38 54 73 84 79 74 71 81 88 87 88 94 98 86 64 61 52 56 53 46 37 33 33 37 43 45
26 21 21 18 19 25 26 26 25 27 28 29 32 36 35 39 30 34 36 38 34 28 25 33 46 59 80 85 79 76 81 88 91 98 98 89 78 66 65 58 51 53 50 43 40 37 40 46 49
33 26 23 20 21 22 26 26 24 24 26 29 31 33 35 32 31 36 37 37 32 27 25 31 44 50 66 76 80 78 82 92 91 90 97 87 78 70 73 63 54 49 44 38 40 40 45 51 50
37 34 27 23 24 24 24 24 24 22 25 28 30 33 30 27 32 37 37 37 32 26 26 31 41 48 63 72 82 84 90 85 88 91 98 93 84 79 72 72 61 50 43 43 42 43 50 51 49
39 43 33 26 25 24 26 23 22 23 27 29 30 33 29 27 32 38 36 35 31 26 27 31 39 47 59 75 86 92 92 92 89 91 99 93 89 82 77 79 63 55 51 50 52 53 52 52 49
44 42 37 24 25 26 29 25 23 27 30 31 32 31 33 30 31 36 35 35 31 27 30 32 44 49 56 75 83 88 91 91 91 88 94 91 86 84 84 83 71 62 60 61 60 65 62 54 50
47 45 42 31 26 26 27 25 24 33 35 35 32 31 33 32 33 40 34 37 31 26 29 37 48 56 61 79 84 87 90 96 87 88 89 89 89 87 90 84 79 73 68 71 69 73 66 59 53
52 53 45 37 24 26 33 32 32 35 37 37 37 37 37 35 36 39 39 38 30 26 32 42 54 60 68 74 83 90 90 89 91 90 91 88 91 86 89 83 80 79 73 76 75 75 68 63 60
56 59 53 39 34 44 45 40 37 37 38 39 40 39 38 38 41 40 41 38 29 26 33 48 58 69 72 75 77 85 91 96 97 97 95 91 88 88 89 84 84 83 86 79 78 81 70 66 69
60 62 51 38 36 49 50 49 43 41 37 37 37 39 38 41 41 42 44 35 30 26 30 50 63 71 71 73 76 85 90 93 96 96 98 95 93 90 89 88 89 88 93 93 90 79 70 72 76
63 63 52 44 45 55 52 51 44 36 36 36 36 37 36 42 40 41 43 36 31 24 27 43 61 68 69 75 76 83 87 91 95 96 96 96 93 94 92 91 91 90 93 94 93 79 74 76 81
68 61 54 54 58 73 57 55 45 40 39 39 35 33 36 44 39 38 39 37 30 24 26 37 51 64 70 74 77 76 73 84 88 92 96 95 95 92 90 87 91 95 92 91 90 79 79 79 78
67 67 65 64 72 69 56 57 41 39 37 37 39 35 38 38 34 34 34 36 30 25 23 30 40 50 59 65 71 71 74 77 80 86 86 89 87 86 87 87 86 88 87 84 80 74 79 79 82
79 76 72 65 71 82 57 59 42 36 37 39 37 39 38 34 33 33 35 37 32 27 27 25 32 38 44 50 57 62 71 75 76 80 81 79 80 82 83 79 79 78 79 78 77 74 80 83 85
82 84 93 90 93 87 51 53 39 37 38 39 38 38 36 37 34 33 36 36 35 28 25 28 30 35 38 42 46 53 63 74 77 77 79 79 77 77 79 83 78 76 77 79 81 80 82 86 88
81 94 87 92 91 68 47 50 35 38 39 41 41 38 37 39 34 33 34 35 36 29 26 28 29 32 36 39 43 47 52 66 76 78 76 77 79 82 82 81 75 72 74 77 79 82 83 84 88
86 96 81 92 79 87 61 44 44 45 41 37 37 38 39 38 33 33 33 35 35 31 27 24 28 31 32 37 40 45 48 51 58 67 73 71 71 74 71 68 69 71 76 84 85 85 84 84 88
92 85 91 98 94 90 66 63 49 46 43 40 42 42 42 41 38 34 33 35 33 32 28 29 29 27 30 33 36 41 44 47 49 51 53 57 59 59 62 64 66 70 69 76 80 86 88 88 88
95 96 95 95 91 84 93 77 60 55 49 46 47 46 41 43 42 37 36 37 33 34 31 33 34 33 30 31 34 39 42 48 50 49 47 50 52 51 52 58 59 61 65 64 67 70 75 78 81
85 95 95 98 90 79 81 82 66 57 53 51 48 46 46 52 54 42 39 41 38 37 37 36 36 35 34 33 36 37 38 41 44 47 50 55 58 60 60 62 59 60 64 64 63 61 67 70 71

GFSSGP_prec_cthk_078.txt.gz
RH
10 9 12 16 19 20 21 23 22 22 21 21 21 22 24 28 28 27 26 29 33 35 34 28 22 24 28 29 34 40 43 50 53 46 51 54 63 49 48 47 40 34 28 25 25 29 30 32 36
10 10 14 18 22 23 20 22 21 22 21 22 23 24 26 36 28 28 25 24 25 28 27 21 22 26 32 38 40 42 50 52 59 56 60 59 61 46 37 33 29 34 27 24 30 28 29 32 33
10 11 16 20 24 23 19 21 21 20 21 22 23 25 25 31 29 29 28 26 25 26 25 20 26 31 33 39 47 47 53 59 66 57 66 65 64 55 42 34 28 31 30 27 33 34 30 31 30
12 15 19 21 22 17 13 23 24 24 23 21 23 28 30 30 29 30 27 26 27 24 19 23 25 25 34 39 48 55 57 65 74 80 71 74 67 56 52 44 38 37 41 37 34 32 30 33 33
12 17 21 21 19 13 16 22 23 24 25 23 25 28 30 30 30 30 28 25 25 25 26 25 29 27 31 43 48 57 66 75 76 72 84 69 69 62 53 51 42 42 41 39 39 34 32 31 29
14 17 22 22 18 12 17 19 21 23 24 26 25 27 32 32 31 33 33 28 28 26 26 31 35 37 37 41 48 69 78 84 88 84 90 91 83 68 57 61 50 42 42 35 37 33 33 32 31
14 18 20 18 16 14 14 21 22 22 25 28 27 29 34 35 34 36 35 33 26 28 32 34 35 34 33 42 52 58 71 96 98 94 87 98 96 96 72 65 53 45 40 38 38 37 36 36 31
14 18 19 19 18 17 16 24 23 27 28 28 28 31 37 34 35 36 35 30 30 33 31 28 30 31 36 44 55 65 71 72 82 86 92 92 97 90 84 67 57 47 38 39 38 36 39 36 32
16 21 23 21 19 16 17 26 25 29 31 30 28 27 28 29 33 36 32 29 35 35 33 28 25 29 41 52 62 68 80 81 86 86 83 87 92 98 85 63 64 58 41 42 43 38 40 40 36
19 22 21 17 16 15 18 26 27 27 29 29 28 28 30 31 34 35 34 31 32 31 34 30 26 29 50 72 74 73 82 78 79 81 82 83 96 98 81 67 53 51 54 44 43 40 43 41 38
22 21 19 18 18 17 16 25 27 27 28 27 31 32 34 34 35 38 31 29 30 33 31 27 25 32 47 69 85 81 80 74 69 79 88 87 94 94 80 72 59 43 44 42 42 41 47 40 38
25 22 22 21 19 18 16 24 26 26 29 28 29 31 34 34 34 36 30 29 32 34 32 24 26 32 45 60 84 82 79 77 77 84 90 90 93 93 71 64 63 57 51 46 33 42 45 44 42
25 21 23 22 22 20 19 21 26 26 28 27 30 32 34 35 35 35 28 32 34 35 33 24 26 32 41 52 80 87 85 85 86 87 91 91 96 84 65 53 53 58 61 42 41 47 48 46 46
21 23 24 25 25 24 24 19 26 22 25 28 29 30 32 34 35 29 28 33 34 34 31 22 26 34 40 53 69 84 88 87 88 91 94 91 96 80 60 53 51 49 51 53 51 55 52 53 49
23 25 25 25 23 26 30 25 22 21 23 24 27 28 30 34 35 25 29 33 32 33 31 22 27 33 44 55 73 85 91 93 96 96 94 96 92 75 59 60 58 54 56 50 49 50 55 54 51
25 27 29 26 31 32 34 29 18 20 22 24 26 30 32 33 30 27 31 37 33 34 27 23 26 35 47 58 73 85 92 94 97 95 91 95 86 74 66 66 66 60 52 49 43 49 53 56 56
29 30 32 31 37 39 39 30 21 23 23 27 30 33 34 35 32 31 31 37 37 36 26 22 26 41 53 61 78 87 95 98 98 95 97 96 85 80 75 73 73 66 54 54 53 56 55 57 59
32 35 35 35 35 48 45 34 27 30 30 33 33 36 39 37 33 35 35 37 42 36 28 23 33 50 58 75 80 87 94 98 99 95 96 95 90 87 83 83 73 67 64 60 58 55 55 56 58
34 39 39 38 44 55 50 41 31 34 37 34 35 37 39 39 40 39 40 41 44 34 29 25 43 54 65 75 76 86 94 98 98 96 92 95 92 89 88 87 78 76 72 65 65 68 68 63 61
31 42 40 41 47 56 51 43 35 36 38 37 36 37 40 44 41 41 43 42 48 34 29 22 46 59 62 70 76 88 96 98 99 97 93 91 92 92 92 88 84 80 80 75 75 71 76 69 67
36 42 48 50 58 57 52 45 40 38 39 37 39 38 38 41 39 40 44 42 46 36 27 18 39 60 61 69 76 87 91 97 99 97 97 97 97 95 92 90 87 82 79 78 77 71 72 73 72
55 46 53 57 74 73 62 59 47 47 40 41 38 39 38 40 37 39 45 43 41 37 25 18 31 53 63 69 71 77 82 93 97 99 99 99 98 96 94 92 83 85 85 81 80 84 83 76 70
50 56 60 72 77 77 60 65 41 49 41 36 36 39 36 36 35 38 44 42 41 37 24 19 27 37 53 58 66 70 72 79 93 96 99 98 99 97 95 91 86 86 89 91 89 93 87 82 74
53 68 68 75 76 79 52 67 44 47 38 36 35 37 38 36 35 42 46 44 43 36 28 23 25 31 38 45 53 60 66 73 77 83 90 93 94 93 92 91 90 91 91 92 93 94 94 89 84
65 81 89 90 91 71 49 63 44 41 39 37 37 37 38 35 37 41 41 40 42 38 29 25 27 32 35 37 41 48 57 71 75 78 79 78 82 87 86 89 87 88 93 96 94 93 90 87 83
78 90 96 90 91 69 55 62 43 40 41 40 36 35 38 40 42 41 45 40 40 39 31 23 27 32 35 38 42 46 50 64 76 76 76 80 79 78 83 85 89 89 91 91 91 90 87 83 81
87 95 88 97 95 89 71 54 38 40 43 40 37 37 41 42 43 43 39 40 39 39 32 22 26 30 34 37 41 44 48 52 66 76 74 76 78 78 82 83 88 87 80 80 77 82 85 81 80
92 95 98 98 97 93 71 59 51 52 51 42 38 40 41 43 46 46 36 38 39 40 33 26 24 29 32 34 38 43 44 48 52 55 61 63 64 66 72 77 74 74 72 73 75 79 83 83 84
95 96 97 95 94 96 96 79 69 68 64 48 46 42 42 43 45 44 39 38 43 41 35 29 31 30 32 34 34 39 45 46 47 49 49 50 53 54 55 59 63 63 67 66 66 70 72 74 79
88 97 95 96 96 87 93 85 80 76 62 51 51 51 45 44 45 47 39 42 47 43 40 34 34 34 31 31 35 38 38 44 48 50 55 58 61 62 62 61 60 61 60 63 68 70 68 67 72

GFSSGP_prec_cthk_081.txt.gz
RH
10 9 10 13 17 21 22 17 20 20 20 20 22 22 23 24 26 29 29 28 26 25 26 28 28 28 24 25 28 31 36 38 40 46 51 51 58 58 58 57 57 57 48 34 26 27 33 30 30
11 10 12 16 21 24 18 17 20 20 20 22 21 23 26 28 29 28 27 27 24 22 23 25 25 25 24 30 33 37 44 45 45 46 47 49 61 53 57 61 54 49 38 31 29 30 33 32 33
11 11 15 19 24 24 16 20 20 19 21 22 20 21 25 27 26 26 28 27 23 21 23 22 21 22 25 32 38 42 45 51 55 60 54 65 55 58 51 59 46 31 31 31 32 30 31 33 33
12 13 16 21 21 19 14 14 21 20 20 20 22 24 27 26 27 27 27 26 25 20 21 21 22 22 27 29 37 46 52 59 57 74 62 58 65 55 58 54 37 30 26 33 35 28 30 34 31
12 15 21 23 19 16 13 13 17 21 22 21 22 23 27 29 28 27 27 28 27 23 22 22 22 25 29 33 37 49 55 61 64 64 84 77 76 69 67 60 48 38 33 34 34 30 32 37 29
13 16 23 25 18 14 12 13 17 21 21 22 24 27 28 30 29 26 30 32 30 26 24 24 29 32 34 38 44 59 63 67 83 69 81 72 89 80 80 68 56 44 42 37 43 42 34 36 34
13 17 20 19 17 15 13 16 19 21 22 23 24 32 32 31 31 31 32 35 32 27 25 28 32 32 32 35 40 47 57 68 75 92 84 92 84 85 94 81 62 46 45 38 46 44 41 37 34
14 16 19 18 17 15 12 13 20 23 23 23 28 35 36 32 32 34 36 35 34 30 27 31 31 36 32 35 39 50 56 68 77 92 89 97 91 98 88 91 74 48 53 45 45 38 35 35 35
16 19 22 18 17 14 12 13 19 23 24 25 26 32 30 30 32 35 35 37 36 31 30 31 31 31 34 37 40 53 63 69 79 88 92 88 87 96 95 96 80 64 54 50 46 43 39 39 35
21 22 19 15 14 13 14 14 16 23 26 27 27 29 30 31 31 34 36 37 35 28 29 31 33 29 26 29 46 62 76 80 81 89 89 85 84 92 92 93 71 55 54 49 51 47 40 40 40
21 19 17 16 15 16 16 14 14 23 26 27 26 27 30 32 34 37 37 37 36 30 30 32 34 28 25 33 43 62 79 91 88 86 84 82 85 83 93 94 80 68 60 56 54 48 42 39 37
24 20 19 19 19 19 18 17 17 20 25 27 26 26 29 32 32 34 37 37 37 29 31 33 35 27 24 32 42 54 78 84 89 86 79 80 82 91 94 89 65 56 69 67 61 49 47 42 44
23 20 20 20 20 20 19 19 17 16 25 27 26 24 23 29 30 33 36 40 38 29 30 33 34 25 21 30 39 52 72 83 85 84 80 84 93 94 97 84 65 49 57 60 61 56 56 47 50
18 20 19 20 21 21 21 17 22 17 19 27 27 24 23 27 29 33 37 39 32 30 32 33 31 24 21 30 37 53 71 86 83 84 87 88 94 93 95 83 70 58 54 53 52 56 49 44 47
20 19 18 18 19 23 24 18 21 19 22 24 28 26 25 25 32 32 35 37 28 30 35 34 31 23 23 28 40 54 67 90 89 89 90 93 92 97 90 78 63 55 64 61 57 49 53 55 48
20 22 23 17 18 20 28 21 21 23 26 23 26 29 29 27 31 32 37 36 29 32 39 38 32 22 22 32 47 59 74 82 93 94 96 97 98 96 81 69 55 48 51 58 63 65 60 64 58
24 26 25 25 21 23 29 24 22 25 30 26 23 26 29 28 30 36 39 35 29 36 42 42 32 22 27 44 56 70 85 90 93 97 98 98 98 95 76 68 55 54 55 55 58 64 62 65 59
31 31 29 29 24 25 32 29 27 29 36 28 25 25 26 26 31 39 38 39 36 39 44 40 30 26 45 52 60 77 87 97 96 98 96 99 99 91 80 63 58 62 66 59 59 65 61 58 58
28 31 31 30 29 31 30 29 30 33 41 29 26 28 28 29 37 40 43 41 39 41 44 39 28 32 52 62 73 77 85 97 99 99 95 93 96 90 72 67 66 68 68 63 55 64 63 60 62
26 29 29 26 27 33 32 30 32 33 36 32 32 31 31 34 38 41 42 43 43 43 44 39 27 34 55 61 69 76 83 96 99 99 97 96 96 87 81 75 75 70 68 64 60 63 62 67 67
34 38 33 33 34 33 38 33 32 33 34 36 36 35 34 38 38 42 39 42 44 43 44 37 23 32 53 60 68 76 89 95 99 99 98 97 95 91 90 84 79 73 73 75 69 66 64 63 64
47 40 42 38 43 46 49 50 38 38 34 37 40 40 40 38 39 41 39 42 44 41 45 36 21 29 52 60 67 76 81 92 97 99 97 97 96 94 93 94 88 82 80 75 71 70 67 71 69
43 44 45 47 50 53 54 68 40 41 36 36 40 41 39 36 41 42 41 39 45 41 43 34 20 27 44 54 61 68 72 87 95 99 98 98 97 97 96 96 91 87 80 81 80 79 79 77 76
43 47 50 52 58 65 57 67 48 44 37 41 43 44 41 39 43 43 44 43 46 44 42 34 22 25 34 43 50 58 65 73 85 97 99 98 98 98 99 98 97 92 87 86 88 88 84 81 80
51 59 68 71 73 61 53 60 44 40 40 48 49 47 43 42 43 39 40 42 45 42 42 32 24 26 32 35 41 48 54 66 73 84 97 98 98 98 98 98 96 95 90 90 89 92 89 90 91
61 64 69 69 76 69 54 58 43 38 39 47 49 46 44 41 42 36 37 42 44 42 41 29 25 26 32 36 37 41 48 57 70 76 83 91 93 94 97 95 96 95 87 88 92 94 94 93 95
68 70 67 82 83 90 76 60 49 53 43 50 50 45 41 43 41 42 42 49 45 45 42 29 23 24 31 34 37 39 45 53 66 75 78 79 80 82 86 89 90 87 84 82 88 89 89 93 93
68 77 83 86 93 92 76 67 75 74 62 55 46 43 41 45 48 46 46 50 44 46 44 32 25 24 27 32 34 36 40 47 58 70 75 76 78 82 85 90 91 91 89 90 82 84 92 94 93
68 78 86 93 94 96 96 88 80 81 71 58 50 45 46 46 46 46 51 53 46 47 45 36 28 26 27 32 34 35 36 41 49 58 63 68 67 63 67 77 85 85 83 83 81 83 87 86 92
65 76 93 99 98 93 91 78 82 80 69 64 56 52 48 48 49 53 55 58 54 47 46 39 32 32 30 32 36 37 38 40 42 45 49 50 50 51 53 56 61 65 66 69 71 73 74 75 75

GFSSGP_prec_cthk_084.txt.gz
RH
11 10 10 12 14 19 21 16 15 17 18 18 20 20 21 21 23 26 26 25 27 28 27 25 24 25 26 27 25 23 29 33 38 43 53 60 62 62 66 64 71 63 54 51 41 34 30 32 38
12 10 12 15 18 21 17 15 16 17 18 19 20 21 23 23 25 27 26 25 26 27 26 23 22 22 22 24 24 26 33 38 40 43 47 50 54 55 57 66 61 52 57 51 38 35 31 33 33
12 11 14 17 24 21 14 13 17 18 19 20 20 22 23 22 25 26 26 26 27 29 26 24 22 21 22 23 26 28 36 38 45 47 54 55 54 62 65 66 54 58 61 47 36 32 34 32 30
12 13 16 21 21 18 13 13 18 18 18 20 20 20 21 22 24 26 28 27 29 30 31 27 23 22 21 24 28 31 35 41 46 49 52 64 73 68 65 61 59 66 54 43 38 33 34 31 31
13 14 21 24 19 16 14 13 12 12 17 20 20 20 23 24 26 28 28 27 29 33 34 28 23 23 25 29 32 35 38 45 49 53 57 80 80 84 71 73 64 58 49 40 36 33 35 33 29
14 15 23 27 19 14 13 11 11 11 17 20 20 21 24 24 27 29 28 29 31 34 34 28 24 26 30 31 34 40 48 53 59 60 62 75 70 87 88 78 68 60 52 44 38 38 35 34 32
15 17 20 20 17 14 13 11 12 13 18 20 21 25 24 25 28 29 27 30 33 34 33 32 27 28 30 33 34 36 40 45 53 61 68 75 82 84 87 76 76 75 55 50 45 40 40 32 37
17 17 19 19 17 14 12 12 11 12 17 21 22 29 28 27 30 30 27 30 33 34 34 33 32 28 32 35 35 36 40 44 52 65 74 84 88 90 88 81 93 86 74 57 45 43 47 42 43
20 21 23 18 17 13 14 13 12 12 15 22 24 24 26 29 33 30 28 31 34 36 36 36 31 29 33 33 34 37 41 48 64 73 77 84 88 91 93 91 90 92 87 63 44 45 50 50 45
22 25 20 17 15 14 14 13 12 12 13 19 23 23 24 26 32 34 27 28 34 37 38 38 33 30 32 33 31 36 45 59 72 80 87 89 91 92 91 92 93 93 92 56 58 48 53 50 40
22 21 19 18 18 17 17 15 13 12 13 17 22 23 24 27 30 32 29 29 33 37 39 39 35 32 32 30 27 32 42 52 66 84 90 92 94 93 88 92 94 96 95 69 64 52 50 49 38
24 23 21 19 20 20 20 18 15 13 13 12 20 22 25 27 28 32 30 27 31 36 39 39 35 33 33 31 26 28 37 49 60 87 95 95 95 92 87 88 96 94 90 68 54 48 51 48 42
24 23 23 23 24 24 22 19 16 18 15 11 17 21 24 26 26 26 32 28 33 38 39 36 35 34 35 31 25 29 35 46 61 80 89 94 92 84 85 87 93 93 78 63 52 53 52 44 44
22 25 24 22 21 21 21 17 20 16 17 15 13 21 24 26 26 24 28 29 35 39 39 36 36 37 36 31 23 27 34 42 58 69 88 91 90 85 84 90 95 91 79 67 65 62 58 51 50
20 23 25 23 19 21 20 18 16 17 18 15 17 16 23 26 27 24 25 29 33 38 41 38 38 41 37 29 24 26 31 43 55 69 89 89 85 84 93 97 96 92 70 64 67 59 69 63 63
19 21 24 18 18 18 18 15 14 16 18 16 18 19 20 25 24 26 26 28 34 41 42 41 40 42 36 29 24 29 39 50 62 74 90 87 87 90 93 97 87 80 56 56 60 60 56 56 50
22 25 25 22 18 19 19 18 18 17 18 19 21 21 22 25 25 26 25 29 35 44 44 38 42 44 39 29 36 48 55 65 75 80 91 92 94 93 93 92 91 79 60 62 60 64 64 44 47
24 27 27 27 23 24 25 21 20 21 21 22 22 24 24 25 23 25 26 28 37 44 40 37 46 46 39 33 53 60 63 78 87 89 93 96 97 95 96 94 85 76 59 66 72 76 66 55 61
21 24 27 23 22 24 23 21 18 23 23 24 23 26 27 26 23 23 25 28 42 47 37 41 47 46 38 37 57 66 73 79 89 95 96 98 98 99 98 88 76 70 53 64 70 71 68 70 65
24 26 25 23 22 29 29 25 19 21 20 22 25 28 30 26 25 25 27 37 43 46 41 45 46 44 31 38 56 65 71 79 89 98 98 99 97 98 88 78 75 64 60 67 70 69 68 70 73
31 33 34 37 35 33 32 24 19 17 18 19 24 29 31 27 30 31 38 43 44 44 44 45 44 43 24 38 58 66 73 86 93 98 98 97 98 97 92 85 77 66 66 66 69 72 71 68 69
44 39 40 40 41 45 41 46 21 21 22 24 26 33 31 32 35 37 43 44 41 41 47 46 43 40 22 42 63 67 75 87 96 98 99 97 97 94 92 86 83 74 69 66 66 70 69 72 72
45 43 41 43 48 48 46 56 27 25 27 29 30 31 33 38 38 42 44 43 39 44 50 45 43 34 20 37 56 65 73 80 94 98 98 98 97 96 93 86 84 76 72 71 67 76 79 77 69
39 43 44 44 46 56 43 49 38 33 40 35 34 35 39 42 43 44 47 43 40 46 52 46 43 29 20 32 44 55 64 72 85 99 97 98 98 98 93 92 91 87 83 75 73 74 80 75 73
46 52 56 60 62 57 38 52 39 35 43 42 39 41 49 50 47 46 46 44 40 44 52 47 43 27 22 31 36 44 53 62 74 87 98 97 98 98 95 95 94 97 88 81 83 82 79 80 80
53 54 54 67 68 62 55 51 42 56 55 48 41 42 43 47 47 47 45 43 38 44 48 47 42 26 23 30 35 40 47 54 65 76 89 99 98 97 95 97 97 97 96 92 86 90 89 90 91
60 63 60 70 66 74 63 50 57 64 63 55 48 48 48 47 47 45 47 44 38 42 46 49 42 24 24 31 36 41 46 52 60 72 81 89 98 99 98 97 97 98 96 97 92 89 92 94 93
57 70 79 80 80 77 61 60 75 73 69 62 55 55 55 50 45 47 48 43 39 43 48 50 40 23 25 32 36 40 43 50 58 69 77 84 84 88 89 89 91 92 95 97 93 91 91 90 89
70 71 80 81 88 86 80 67 83 81 73 69 63 64 59 50 52 52 52 48 44 46 49 50 40 26 27 31 36 38 40 46 55 65 74 78 77 78 81 83 86 89 89 92 89 88 81 81 87
71 70 74 87 84 85 86 73 79 82 76 70 68 69 66 58 58 56 57 55 52 50 52 52 41 29 29 32 36 37 40 42 46 56 64 69 71 69 62 63 71 83 88 86 80 78 76 78 79

GFSSGP_prec_cthk_087.txt.gz
RH
9 11 11 13 13 15 15 11 12 13 15 16 17 16 17 19 24 22 22 23 22 23 25 24 23 21 19 19 22 25 25 25 30 35 40 46 53 58 57 62 62 67 57 53 51 46 41 39 37
11 12 12 15 14 11 10 13 12 12 15 16 18 20 20 20 21 22 25 23 23 24 23 23 22 21 20 20 21 23 26 29 34 42 46 52 58 61 55 61 64 63 68 62 56 47 43 35 34
12 12 14 15 16 11 10 11 13 15 15 16 18 20 21 20 22 22 24 24 24 24 24 24 24 23 21 19 22 26 28 34 39 45 49 48 51 55 60 58 58 68 66 58 56 46 41 33 34
15 14 15 18 16 13 11 11 15 17 15 18 19 19 19 20 21 23 25 25 24 25 25 26 25 24 22 21 23 27 30 32 40 44 47 45 50 53 64 77 77 74 60 59 69 49 38 37 33
15 15 17 19 17 14 13 11 15 15 14 15 20 20 20 21 23 25 26 26 24 27 28 28 26 25 23 23 25 29 34 36 38 43 48 52 55 69 71 82 83 69 68 62 59 50 42 39 35
17 17 18 15 16 13 13 12 10 10 10 11 16 19 20 21 23 27 27 28 26 29 30 30 27 27 27 26 28 27 30 37 41 48 51 64 75 81 77 83 91 79 69 62 54 49 39 40 39
17 18 15 16 16 13 12 11 11 9 9 12 16 20 21 25 26 28 30 29 26 30 32 31 30 29 29 26 29 29 31 33 39 48 57 56 65 75 82 84 82 86 73 63 58 43 38 35 40
19 18 19 18 16 13 11 12 11 11 10 11 16 21 23 24 25 30 31 30 28 30 33 34 33 33 31 29 29 29 31 33 36 44 50 64 72 79 82 81 86 84 77 66 58 53 40 37 39
23 22 20 18 17 13 14 12 12 11 11 11 15 18 22 27 25 31 33 31 28 29 32 34 34 36 36 33 34 32 31 34 38 45 57 70 79 82 83 91 89 90 89 82 71 65 43 47 38
24 23 20 19 16 15 15 14 13 13 12 11 12 17 21 23 24 29 34 31 28 29 32 35 35 38 39 34 35 35 34 35 38 43 50 68 77 87 91 91 91 96 95 93 85 71 46 50 54
24 22 21 19 18 18 17 16 15 14 13 11 10 16 20 22 22 25 31 34 29 32 32 34 36 39 39 33 35 35 34 35 38 42 53 64 82 90 92 92 91 97 98 96 93 74 50 53 53
25 24 22 20 20 19 19 18 17 16 15 12 10 14 18 20 22 23 26 30 31 32 32 35 37 39 39 33 35 35 32 35 38 42 49 64 90 93 94 92 92 97 95 94 92 65 52 51 50
26 24 23 22 21 20 20 20 19 20 19 17 13 13 16 19 21 22 25 27 27 31 33 37 40 42 41 36 37 35 33 35 40 42 50 66 86 91 97 95 93 97 96 95 87 66 55 51 48
24 27 26 23 23 21 22 19 21 16 17 19 18 14 13 17 20 21 23 24 23 30 34 38 40 44 45 43 41 37 33 36 39 43 48 64 82 89 94 95 94 93 98 96 91 67 54 52 48
23 26 26 23 22 22 21 18 19 15 17 17 16 17 14 14 19 20 21 22 22 26 33 37 42 45 45 47 44 38 34 36 39 43 51 67 76 92 96 93 90 91 97 94 78 67 56 56 53
19 20 21 17 17 16 17 18 17 16 14 15 16 16 16 14 14 21 21 21 22 26 31 40 45 47 47 48 45 37 35 42 54 57 66 67 77 95 96 92 89 94 96 92 73 62 59 58 60
21 18 22 19 18 18 18 18 21 16 16 15 15 16 16 16 16 16 21 22 23 25 31 40 45 50 46 47 48 40 39 57 64 67 75 78 87 94 89 92 98 95 97 90 67 66 74 71 63
15 19 22 22 19 18 17 16 18 16 15 16 16 16 17 18 18 17 21 23 24 26 32 41 45 52 41 49 48 40 51 64 71 80 83 89 92 93 93 94 97 99 97 94 68 74 69 68 65
19 24 26 23 18 17 16 16 16 14 13 13 14 15 16 18 19 20 21 23 25 25 31 39 44 45 41 49 46 37 56 64 72 79 86 91 96 98 97 97 97 96 94 77 56 64 64 65 64
24 23 23 23 20 25 24 20 17 14 13 13 13 11 14 16 20 21 25 26 24 24 34 39 49 42 45 48 42 37 56 68 78 84 90 93 96 98 98 96 95 91 94 75 62 64 67 67 57
26 27 29 31 31 29 29 20 16 15 14 12 12 14 14 14 20 24 26 24 24 29 35 44 51 40 45 47 33 44 64 71 80 88 97 98 97 98 97 96 98 94 92 75 66 70 76 76 72
37 33 36 42 41 34 33 28 18 19 16 18 20 19 18 17 22 27 26 26 32 37 40 51 49 43 45 43 26 48 68 73 79 87 99 98 98 99 98 98 98 92 86 70 65 73 73 74 69
45 44 42 42 43 45 38 42 27 19 21 25 29 26 22 22 27 29 27 36 40 42 44 51 49 45 45 34 26 45 62 69 76 86 99 98 98 98 99 98 93 87 75 73 68 74 79 76 73
47 42 41 45 47 52 36 37 27 23 27 31 38 33 30 30 34 33 35 42 42 45 46 46 50 47 45 26 30 42 52 60 70 84 97 99 99 97 94 90 88 82 80 77 66 73 77 74 71
49 51 52 57 57 43 40 47 29 29 42 47 46 42 38 37 37 37 40 43 46 46 46 44 51 47 44 25 34 41 45 52 63 76 89 97 98 98 96 97 94 92 87 71 71 72 75 76 79
53 53 47 48 55 52 49 44 32 46 52 53 55 50 45 44 45 42 44 46 51 46 47 44 49 50 41 28 38 41 44 49 58 73 86 99 97 95 92 94 96 88 85 84 83 80 74 77 86
60 60 56 62 57 57 44 36 39 48 58 59 59 52 48 50 50 47 47 48 50 46 45 45 50 51 34 31 40 42 45 50 55 66 81 93 97 97 96 96 91 94 94 96 91 87 81 78 84
62 64 75 72 69 67 48 45 44 61 64 64 62 58 52 55 51 51 49 51 53 52 47 49 51 51 30 33 40 42 43 48 55 65 78 87 95 99 99 94 95 96 96 96 96 91 87 87 88
71 72 73 75 74 71 65 47 68 73 72 66 65 62 56 60 59 57 59 56 58 53 48 53 54 47 30 33 38 41 42 45 54 63 76 87 84 86 90 90 94 95 96 96 97 96 90 89 88
69 69 67 74 76 80 78 58 62 65 68 68 70 67 65 73 74 70 64 62 61 51 49 56 56 42 32 34 37 41 43 43 52 59 68 79 82 81 83 88 90 88 92 95 92 94 88 85 80

GFSSGP_prec_cthk_090.txt.gz
RH
10 10 10 12 13 11 10 10 9 11 12 13 13 13 14 17 22 23 18 20 18 19 19 21 22 20 18 18 19 21 22 24 25 27 35 42 47 54 56 62 68 69 65 58 56 56 53 50 48
14 12 12 16 12 12 10 11 9 10 12 13 15 15 15 16 17 20 21 19 19 18 21 20 20 20 20 20 19 20 21 23 25 30 39 45 50 54 61 60 64 68 69 62 59 56 49 44 40
15 14 15 14 14 11 10 11 10 12 11 12 15 17 19 18 20 21 22 20 20 20 21 21 22 22 21 20 19 19 20 22 28 35 41 47 51 55 57 59 59 63 69 73 66 61 46 44 39
18 17 16 14 11 13 11 11 13 14 12 14 14 16 17 19 21 22 21 21 21 21 23 22 23 23 22 22 20 21 23 27 32 37 45 50 53 52 54 54 64 66 69 70 66 68 47 40 37
20 20 17 16 13 12 14 12 14 16 16 14 15 18 19 21 21 21 23 24 23 22 23 23 24 22 23 24 23 24 25 29 35 41 47 50 52 56 63 64 67 76 76 69 64 63 51 40 39
23 20 17 14 15 16 14 13 12 15 14 14 13 15 19 21 23 24 23 25 24 23 22 24 24 22 24 24 25 26 26 27 32 40 46 54 57 68 71 74 77 81 83 80 65 62 54 40 40
23 21 16 15 14 15 16 14 13 10 9 9 13 12 15 21 23 21 24 27 26 24 23 25 25 25 25 27 27 27 28 28 32 40 58 68 80 64 65 67 83 80 80 77 68 61 56 39 40
24 21 19 16 15 16 15 16 14 11 10 12 12 14 19 18 20 24 29 31 28 26 25 25 26 26 27 29 30 30 29 29 31 40 44 48 58 65 73 77 82 86 86 78 74 66 56 42 44
24 22 18 17 18 16 17 15 13 13 12 12 12 13 17 19 21 28 36 34 31 27 26 26 27 28 29 31 32 34 33 31 32 38 42 48 66 76 84 90 93 91 92 84 78 68 56 41 40
24 22 20 21 20 18 18 16 14 14 13 13 12 11 14 17 22 28 35 36 35 31 27 27 29 29 30 32 33 36 33 33 35 38 38 48 55 57 76 87 94 88 88 91 83 79 72 51 44
26 22 22 23 22 20 18 17 17 15 14 14 12 11 13 18 19 25 29 34 34 34 28 28 30 31 32 33 35 36 33 37 37 40 40 42 48 57 69 83 94 90 94 95 93 95 88 61 50
27 24 23 23 22 20 19 18 17 17 17 16 14 13 12 15 17 19 23 28 33 37 32 29 31 33 33 35 38 39 32 32 31 34 38 41 50 62 68 86 90 95 95 95 95 96 96 69 58
27 25 23 23 23 21 21 18 17 18 20 19 18 17 15 13 16 17 20 24 29 34 33 30 32 34 35 38 41 43 36 32 32 37 38 43 49 66 72 90 93 95 96 99 98 98 94 71 57
33 28 24 23 23 22 21 19 19 19 19 19 20 21 20 16 15 16 20 23 25 31 32 34 33 35 37 40 44 47 44 33 34 35 37 48 47 58 74 85 94 94 94 98 97 95 91 71 57
32 38 35 24 23 22 23 21 17 17 18 18 19 20 21 20 15 14 19 21 24 28 31 34 32 36 39 43 46 51 52 37 33 33 42 62 52 64 76 83 93 97 95 97 98 95 87 73 56
23 22 22 18 18 17 18 15 15 16 16 17 17 18 17 17 17 13 14 18 23 26 29 33 34 36 40 44 48 54 53 42 38 38 53 65 70 76 83 82 96 97 95 98 99 95 84 73 66
22 21 17 18 20 19 20 16 18 18 15 16 16 15 15 14 15 14 12 16 22 24 27 32 34 36 41 47 50 56 51 46 39 44 64 70 74 86 84 86 95 97 95 94 97 93 87 78 62
16 16 16 17 18 19 16 17 18 16 11 10 12 12 11 11 12 13 15 15 19 24 28 32 35 35 41 48 54 56 51 47 38 52 67 79 89 88 83 94 95 97 96 97 97 94 88 70 61
16 17 18 21 21 17 15 13 14 15 10 10 9 8 8 9 10 12 14 17 17 19 26 31 37 33 42 48 54 50 49 46 36 52 67 74 87 88 95 97 97 89 97 98 95 89 78 71 63
27 23 19 17 17 19 17 19 19 15 12 9 8 9 9 10 10 12 14 17 18 20 24 32 35 34 45 49 57 49 47 42 40 54 67 75 82 89 96 92 92 98 97 98 95 85 75 68 72
43 34 30 27 23 22 23 19 14 16 11 11 12 14 13 12 12 13 14 18 22 23 27 33 33 42 50 55 54 47 48 34 55 64 73 80 87 92 96 96 96 97 98 99 90 84 75 74 77
38 33 36 31 36 31 32 22 18 17 14 16 20 23 23 21 17 15 14 20 24 29 31 29 38 47 56 56 48 46 41 37 63 69 76 86 93 98 97 97 98 98 97 96 96 82 69 70 65
47 51 40 45 43 35 29 32 19 18 19 24 27 29 30 26 23 22 17 22 28 30 30 34 43 52 57 49 47 46 29 41 60 67 75 87 98 98 96 97 97 98 98 96 86 70 64 60 63
50 48 46 43 38 43 29 28 20 28 28 31 35 33 36 33 30 23 24 27 34 32 34 42 49 57 58 47 45 36 30 40 51 58 75 88 98 97 98 97 98 96 98 95 91 82 70 73 80
60 56 60 62 60 38 35 30 25 29 40 41 43 41 40 37 33 32 32 38 39 42 43 49 55 58 53 48 43 23 35 38 48 53 72 88 97 99 98 99 99 99 99 98 92 80 73 71 78
51 49 45 48 45 39 40 38 39 38 43 48 48 46 44 42 41 42 41 43 48 49 51 56 57 58 52 48 36 28 37 39 46 53 69 86 98 98 97 98 99 99 99 92 86 88 76 75 80
60 60 51 56 47 48 32 34 40 44 49 48 51 51 51 48 48 47 46 49 52 52 55 57 61 56 55 51 30 33 39 42 48 56 69 86 98 99 98 98 99 97 92 89 94 83 73 83 87
59 58 61 57 63 53 40 37 49 61 49 49 53 54 58 52 55 55 48 52 56 57 58 58 61 57 55 48 30 36 39 41 48 57 71 84 99 99 94 98 98 94 92 91 83 80 89 88 87
65 64 63 69 63 68 54 55 57 56 55 50 55 57 63 62 61 63 59 57 62 65 62 59 61 56 56 42 32 37 38 40 46 58 72 86 92 98 94 94 93 91 93 91 94 94 95 93 88
69 63 68 63 74 62 67 52 49 50 48 49 55 63 68 67 66 68 67 70 70 68 65 63 65 60 55 38 33 37 38 40 48 58 70 85 84 88 93 96 89 92 93 94 95 97 96 92 89

GFSSGP_prec_cthk_093.txt.gz
RH
10 11 12 12 12 12 9 10 10 12 13 12 11 10 13 20 23 30 31 22 19 19 16 17 17 17 17 16 16 18 19 20 23 27 31 36 42 46 53 52 54 60 62 57 52 55 56 52 49
13 17 15 14 16 13 12 12 12 12 15 15 11 11 11 15 19 25 24 21 19 19 16 18 17 17 16 17 16 17 18 20 22 26 30 41 45 49 54 54 57 63 64 65 57 57 54 50 46
17 20 16 16 14 15 12 13 14 14 15 12 13 12 14 16 18 21 28 19 20 21 19 19 18 18 18 17 17 17 19 21 22 26 31 38 45 51 55 58 58 58 60 64 66 62 61 48 41
23 22 20 18 16 13 14 13 14 14 17 12 13 16 16 20 23 22 30 20 22 25 23 20 20 19 18 18 19 20 22 24 27 30 32 37 45 50 55 65 58 55 61 66 73 68 64 48 41
27 24 20 17 16 16 14 14 14 15 19 18 14 13 19 21 22 24 29 23 23 25 24 21 20 20 18 19 20 21 22 25 27 32 37 43 48 54 60 63 60 64 65 67 74 70 67 51 41
29 27 22 19 17 17 17 16 15 15 18 18 15 13 20 25 24 26 25 25 26 26 25 21 21 21 20 20 21 22 23 25 28 32 39 50 55 64 62 66 70 77 71 77 69 77 64 55 43
29 28 22 20 19 18 20 18 17 17 16 18 17 14 17 24 27 29 26 27 27 27 24 21 21 22 21 21 22 24 26 25 28 34 43 53 81 74 70 65 66 72 78 79 81 78 61 56 52
30 29 25 22 21 20 20 18 17 17 17 14 14 15 16 23 24 26 29 30 30 29 24 22 22 22 21 23 24 25 27 28 30 33 46 51 61 65 64 67 72 74 79 84 84 78 64 64 59
33 29 22 22 22 22 21 17 16 16 16 16 16 15 22 24 23 19 28 32 33 29 29 22 23 24 24 25 25 26 28 29 30 31 34 44 55 62 76 82 87 92 88 92 92 88 77 65 60
34 30 24 22 23 25 23 17 17 16 17 17 16 17 15 15 16 20 25 32 35 32 29 26 23 25 27 32 30 27 28 30 30 31 32 38 46 60 68 72 87 92 94 94 93 91 86 71 65
33 30 27 26 28 28 25 20 20 18 18 18 18 18 14 14 14 18 20 27 36 35 34 27 24 26 28 33 34 36 35 36 36 35 35 35 45 51 66 65 63 82 96 93 93 90 95 84 73
35 32 30 28 28 31 27 22 19 19 20 21 20 18 16 15 15 17 16 21 29 38 35 30 26 33 29 32 33 38 38 39 40 37 38 37 38 49 60 52 63 77 86 92 93 91 94 93 82
36 33 37 31 28 28 29 22 19 18 20 22 21 19 17 16 15 14 14 17 23 35 38 34 28 32 29 29 29 33 37 43 46 47 38 39 34 39 45 57 62 80 91 92 94 94 94 96 90
31 30 31 36 28 28 27 23 22 18 20 20 20 19 20 20 19 15 13 16 19 24 35 36 30 30 34 30 30 34 37 40 45 47 41 38 38 40 43 50 67 83 90 94 96 98 98 94 92
36 34 33 33 35 34 29 24 20 18 17 19 20 18 18 18 19 19 14 16 19 22 26 35 33 29 31 30 33 37 40 41 49 48 39 36 43 51 54 52 71 79 91 95 96 98 99 96 93
40 34 28 23 26 28 31 26 19 19 20 19 19 18 17 18 18 19 19 16 18 21 23 30 34 29 31 33 34 38 42 43 50 49 39 33 42 56 68 63 83 87 91 97 96 99 99 97 95
39 37 31 22 23 27 25 26 19 21 22 19 19 19 18 19 17 17 17 17 17 20 23 28 31 29 31 36 37 39 43 46 51 52 46 34 45 61 69 70 80 94 95 95 98 99 98 96 95
35 33 37 31 18 21 24 30 19 21 21 16 15 15 15 16 16 17 16 16 16 19 25 28 31 30 31 36 40 41 45 51 52 49 49 38 48 69 79 80 87 93 91 93 97 99 98 96 94
44 35 35 34 18 26 24 21 17 15 17 14 9 9 10 11 12 15 16 16 17 19 23 28 29 29 30 35 38 41 46 54 54 48 49 38 46 69 85 91 90 99 91 95 97 98 97 96 92
47 39 34 31 23 18 15 17 15 15 16 11 10 10 10 11 13 13 12 14 17 21 21 26 28 33 31 36 40 47 53 58 52 48 45 42 54 66 79 88 93 85 94 96 99 97 96 95 93
50 49 36 39 27 27 20 19 15 14 16 12 10 11 12 12 12 12 12 13 18 23 23 25 26 33 33 38 42 53 61 57 49 46 44 51 62 71 78 87 89 92 95 98 95 97 96 96 96
50 51 37 38 41 33 36 29 30 28 22 16 17 20 25 24 21 20 15 14 17 21 25 26 27 34 34 38 48 58 58 49 46 45 38 58 67 74 80 86 90 95 93 98 95 97 94 94 91
50 56 51 49 51 47 40 38 21 22 20 25 31 34 36 34 28 26 20 17 17 21 26 27 32 38 36 39 51 64 57 49 45 33 39 58 67 74 87 93 97 97 95 97 97 98 95 94 90
59 63 62 56 52 50 42 38 32 31 40 38 41 39 40 41 37 34 27 24 21 24 32 32 37 37 38 47 63 65 53 48 41 35 45 55 64 79 89 97 97 95 98 98 98 98 95 90 89
67 72 72 68 60 51 40 42 37 43 49 40 41 42 42 44 45 39 36 30 27 28 33 36 36 40 47 59 67 61 49 43 33 40 44 51 63 81 90 97 98 95 98 97 97 95 94 93 83
67 67 58 54 52 46 44 40 35 48 44 43 47 48 48 47 48 45 44 39 37 37 38 37 43 51 58 67 67 55 47 33 38 38 43 50 64 82 98 98 98 96 96 99 98 98 97 88 80
66 69 57 65 69 67 62 48 64 52 52 51 49 50 50 48 48 49 43 39 44 44 44 42 55 63 65 69 59 53 40 34 37 39 45 54 67 85 98 99 98 97 99 96 97 95 93 88 81
69 62 71 61 62 57 38 35 62 71 62 49 46 50 54 51 48 48 52 51 51 51 51 52 60 66 68 68 58 50 39 35 37 40 47 59 73 91 98 99 98 99 99 98 97 93 96 94 88
61 76 67 66 52 58 53 55 71 67 59 44 44 48 53 52 52 56 59 58 59 58 58 60 64 70 68 67 58 47 39 36 38 43 49 67 83 95 99 98 98 99 99 99 99 99 97 91 77
58 62 68 70 75 60 69 75 74 66 42 41 52 56 54 59 59 64 67 66 65 66 66 65 72 70 69 66 52 48 40 36 39 44 54 74 84 93 96 97 98 99 99 98 96 90 85 86 89

GFSSGP_prec_cthk_096.txt.gz
RH
9 10 10 13 13 13 11 9 10 9 11 11 13 13 13 18 26 37 38 33 24 19 16 13 14 15 14 13 13 13 15 18 21 24 27 31 36 41 46 50 46 46 46 51 48 51 51 53 52
11 14 17 16 16 14 11 12 13 11 14 13 14 12 12 15 24 30 31 29 23 17 14 14 14 14 14 13 13 14 15 17 21 24 26 31 37 46 51 53 49 52 59 60 54 52 52 49 47
17 21 24 19 15 14 14 14 14 15 16 16 15 13 11 10 18 26 28 26 20 15 14 15 14 15 15 13 14 15 16 18 21 23 26 31 38 45 52 54 52 56 61 63 61 55 57 50 42
23 26 27 20 17 15 15 14 14 16 17 15 15 15 17 19 22 24 28 25 20 18 15 15 16 16 15 14 14 16 17 20 22 24 27 31 36 44 53 52 60 61 59 59 65 66 65 58 45
26 30 26 22 18 17 17 18 17 18 16 18 16 15 19 20 23 29 30 30 23 25 18 17 17 17 16 15 16 16 17 19 22 25 29 34 38 45 54 63 67 61 62 63 66 70 67 64 49
28 27 25 22 20 20 19 18 18 17 17 19 20 16 15 25 26 25 33 29 25 26 21 19 18 18 17 17 17 17 19 19 22 24 30 35 42 51 57 61 64 64 68 70 74 73 72 66 56
32 29 25 23 22 22 22 24 22 19 18 18 23 20 17 21 28 33 29 30 27 27 22 21 18 18 18 18 18 19 19 20 21 25 30 38 47 60 67 69 70 73 80 78 75 75 71 66 61
36 35 31 27 25 23 22 23 23 22 19 18 19 21 22 21 27 33 28 33 29 28 24 22 19 19 20 20 19 20 20 21 22 25 27 37 50 57 60 67 65 70 77 79 91 86 88 74 63
38 36 32 29 28 25 25 24 25 21 18 17 18 18 20 23 25 27 29 29 34 29 26 22 19 20 21 21 20 21 21 22 23 25 26 32 37 49 58 69 74 85 91 94 96 94 92 89 77
35 37 30 29 28 28 27 27 26 24 19 18 18 19 19 22 23 27 33 28 30 28 26 24 22 21 22 22 20 21 22 22 24 26 27 29 34 41 49 58 68 71 81 86 91 87 92 92 85
35 32 37 34 32 30 28 28 29 24 18 19 19 19 20 20 21 19 24 30 26 27 29 26 26 23 23 25 21 22 22 24 25 28 29 30 33 37 45 53 67 72 76 79 86 95 88 87 91
32 34 37 38 37 33 31 31 31 27 21 21 22 22 21 20 20 19 17 18 21 30 31 28 26 27 24 27 25 24 24 27 27 30 33 34 35 37 42 44 57 63 58 70 82 96 95 89 91
29 32 35 38 38 38 35 32 32 28 25 22 22 21 21 20 20 19 18 19 16 23 34 31 28 29 26 26 28 29 30 32 32 34 35 39 42 40 43 43 48 55 56 61 78 88 94 90 90
32 33 30 31 37 35 37 32 31 28 23 21 21 20 21 22 19 19 18 17 14 16 23 36 29 30 28 26 28 29 33 36 35 36 39 43 45 46 44 44 46 46 52 59 82 92 96 97 94
31 31 33 32 31 32 36 32 29 31 22 18 18 20 19 20 20 19 19 18 14 14 18 26 34 28 29 27 28 30 31 34 37 38 43 48 48 43 41 45 49 52 51 68 83 93 98 98 98
29 35 36 34 42 40 38 29 29 31 37 23 20 19 19 20 19 19 20 19 18 14 17 20 25 25 28 31 30 32 33 33 37 40 44 53 55 45 39 47 57 68 64 72 90 94 96 98 98
25 29 31 33 38 36 38 31 29 27 30 33 22 23 23 21 20 19 19 19 19 17 18 20 23 25 22 30 32 35 35 34 36 40 46 53 55 48 40 42 60 70 75 78 95 96 95 99 97
20 26 23 23 30 37 39 35 34 23 30 32 34 23 24 21 22 22 20 19 20 21 18 21 22 25 22 29 34 36 37 37 41 42 49 53 50 50 43 41 61 76 80 86 97 97 96 96 94
20 22 22 21 27 35 39 39 30 29 27 26 27 22 17 16 15 18 22 20 19 20 17 19 22 25 21 26 31 33 35 40 43 44 51 52 49 49 45 44 62 83 82 90 99 98 97 99 97
27 28 24 26 29 42 38 34 35 32 16 14 16 10 11 12 13 14 13 17 19 18 17 18 23 26 22 26 30 35 36 39 42 45 54 52 51 47 44 51 65 83 86 87 95 95 98 98 98
32 34 33 33 35 42 40 35 35 20 21 15 21 13 15 16 17 18 17 16 15 16 17 18 23 26 26 25 31 35 37 40 42 53 53 53 47 47 46 61 70 81 88 94 93 96 97 98 96
34 37 46 41 43 43 42 43 32 38 33 24 19 18 26 32 31 24 20 17 15 16 16 18 21 24 30 26 31 34 34 36 43 53 52 47 42 43 46 64 70 76 89 92 91 95 98 96 96
53 44 51 47 45 51 44 50 38 41 36 36 30 34 44 37 36 33 28 22 18 16 17 21 23 24 33 25 32 35 37 38 50 55 49 42 43 34 47 65 70 75 85 88 96 97 97 97 96
55 56 52 54 57 57 49 48 45 42 37 40 57 50 52 49 44 40 33 27 21 19 19 24 26 27 30 31 36 41 39 51 55 53 44 41 31 36 49 59 68 81 88 92 97 97 97 97 97
65 65 81 81 68 59 51 49 47 48 63 58 55 58 56 50 46 50 42 35 29 24 22 29 29 30 32 38 39 44 48 60 63 49 42 32 34 39 48 58 72 88 92 96 98 97 97 98 97
71 67 68 76 71 60 51 52 55 48 59 66 67 65 52 50 45 53 51 45 37 30 30 32 33 37 41 41 41 46 58 66 62 50 40 34 39 43 50 59 74 85 97 99 97 96 98 98 98
66 75 60 80 69 81 86 49 67 51 75 64 62 62 57 50 43 52 49 49 47 49 41 40 41 42 46 44 48 60 68 63 60 47 33 40 41 48 57 70 88 97 98 97 98 98 98 98 97
69 60 69 73 95 86 89 71 88 82 70 61 52 52 52 49 49 53 58 54 53 47 48 49 45 51 53 56 60 70 59 64 55 41 39 39 44 55 68 77 94 99 99 97 99 98 96 98 98
54 71 68 72 71 86 66 73 89 85 71 68 64 59 51 51 54 58 64 65 61 67 58 50 54 60 63 66 71 67 65 62 51 42 38 41 49 67 80 85 96 99 98 98 99 98 98 97 98
55 56 78 79 69 61 81 96 89 74 70 77 74 61 59 57 59 60 67 67 66 66 62 54 64 67 71 69 73 71 67 60 51 41 40 43 61 74 82 91 98 98 99 98 99 99 98 98 97

GFSSGP_prec_cthk_099.txt.gz
RH
10 9 10 11 14 14 14 10 6 7 13 13 14 14 16 17 22 34 28 29 30 24 21 19 18 13 13 14 13 13 14 16 18 19 22 25 30 35 41 42 41 42 43 45 47 50 50 54 56
14 13 15 17 18 18 16 11 14 13 17 15 13 15 14 18 23 26 30 34 27 21 20 19 18 14 13 12 12 12 13 15 17 19 22 25 30 36 43 46 47 46 47 49 53 47 51 52 52
19 18 21 22 20 18 16 12 13 16 18 18 18 16 15 16 21 25 28 26 21 21 20 17 16 14 14 12 12 12 13 15 17 20 22 24 29 37 44 49 50 50 53 58 60 55 51 53 51
20 24 24 26 21 18 15 15 13 17 19 18 18 18 18 18 19 23 25 25 21 21 20 17 15 15 14 14 13 13 13 16 18 21 22 24 29 34 42 50 53 53 59 65 65 62 61 58 53
24 26 27 25 22 18 17 17 17 17 18 18 18 19 21 23 22 23 26 24 20 17 16 14 14 15 15 15 15 14 14 15 18 20 23 26 29 35 43 51 59 61 63 56 63 69 71 65 59
27 29 30 28 22 20 19 18 19 19 18 18 19 20 22 27 24 25 26 28 25 20 17 16 15 15 16 16 16 15 15 15 17 20 23 27 32 37 46 54 67 70 65 64 66 72 75 70 64
32 31 29 28 26 22 19 19 20 22 20 20 18 21 23 24 26 29 32 29 27 23 20 18 17 16 17 16 17 17 16 16 17 19 22 28 34 40 49 56 66 68 72 73 77 74 74 72 67
33 35 33 31 30 25 24 22 23 24 22 20 22 20 24 26 25 28 31 30 28 26 23 22 20 18 17 17 17 18 17 17 18 19 21 26 33 41 50 58 65 68 68 72 81 89 91 85 75
42 40 34 33 33 30 29 28 25 27 24 23 23 21 22 24 27 31 36 34 32 28 23 24 22 19 18 18 18 19 18 17 18 19 21 24 29 38 45 53 58 65 69 80 81 87 87 90 89
37 37 36 36 32 30 30 30 29 29 27 24 23 23 22 22 24 25 29 35 33 30 24 23 22 20 19 19 20 19 18 18 18 19 21 22 26 33 40 48 57 64 66 73 77 84 86 89 92
25 28 31 31 35 35 33 31 31 29 30 29 23 24 25 22 22 21 22 26 32 32 27 21 21 23 20 20 21 20 19 19 20 20 21 23 25 29 35 41 47 54 61 66 73 78 81 82 90
23 23 25 26 30 35 35 33 30 30 30 31 31 26 23 21 23 20 20 22 22 30 28 23 20 21 23 22 21 23 21 21 21 21 22 24 25 28 31 36 41 47 57 63 67 82 86 86 87
20 20 22 23 26 28 32 32 32 29 32 32 29 28 26 22 21 21 21 20 22 22 27 24 24 24 24 25 24 25 24 23 22 23 24 26 27 31 34 36 39 41 46 51 59 69 71 81 86
17 17 17 18 22 26 31 29 35 31 33 32 30 26 26 25 23 23 22 21 19 18 22 24 27 27 31 27 25 26 26 26 25 25 26 28 31 35 39 40 42 43 44 48 52 69 69 86 92
20 21 19 17 19 23 29 26 24 27 31 31 30 27 25 24 24 21 21 21 19 16 18 19 24 25 31 34 32 28 27 28 29 28 29 32 36 42 45 46 43 39 46 52 57 59 79 89 93
22 24 24 14 17 17 28 25 21 29 32 30 28 24 23 23 18 20 20 18 18 17 16 16 20 25 29 34 37 34 31 30 31 32 33 34 39 44 50 53 45 38 44 60 70 66 69 90 93
19 25 23 17 18 20 26 26 22 27 30 30 30 28 27 28 26 24 19 19 17 17 18 18 18 22 28 31 31 35 34 34 35 36 35 38 43 46 50 51 48 45 42 60 72 77 74 89 96
22 26 22 21 13 23 25 25 23 22 30 30 31 31 31 34 32 28 25 20 20 20 20 21 18 20 31 28 26 29 35 36 38 40 38 42 45 50 54 50 49 47 46 56 76 81 85 95 96
15 19 20 17 18 30 32 27 19 21 31 30 30 34 33 32 37 30 23 21 25 21 20 21 20 21 29 26 25 25 27 32 38 43 43 44 49 54 56 53 52 47 46 57 80 84 88 97 96
22 22 21 20 17 28 30 28 22 24 26 29 30 32 27 25 31 25 23 24 21 24 21 21 21 21 24 24 23 23 26 30 39 42 43 47 51 60 58 54 51 50 56 63 84 91 95 96 98
38 36 25 27 28 37 33 29 22 21 27 33 28 29 19 19 17 15 14 20 19 20 23 21 22 22 25 25 26 26 28 35 39 41 41 46 53 61 59 51 50 55 58 69 82 88 93 98 97
38 40 47 39 40 48 44 39 26 23 30 37 36 36 16 16 16 22 28 27 25 19 20 19 20 23 24 25 23 22 22 30 33 38 42 50 57 56 57 49 53 51 58 70 75 91 92 94 97
44 47 59 54 49 59 47 46 23 29 37 44 44 32 27 28 37 42 34 28 24 21 19 17 17 21 24 27 22 21 23 29 32 38 42 51 57 57 52 47 49 45 59 72 75 81 90 93 98
44 58 58 79 60 64 42 47 32 32 41 49 54 56 45 53 53 47 41 36 28 24 23 19 20 20 23 26 22 23 23 29 35 39 45 51 54 55 45 46 36 41 57 68 75 84 91 95 95
61 59 83 90 78 70 41 50 33 37 48 55 74 55 52 50 50 45 48 42 34 26 21 20 23 22 27 26 24 26 27 31 39 43 50 52 56 46 40 34 39 45 53 61 72 89 91 95 96
56 59 87 79 72 59 56 48 43 46 50 73 87 69 67 63 61 54 61 53 46 38 28 27 25 26 30 27 28 34 34 40 42 48 58 57 50 43 33 39 44 47 55 62 78 89 92 96 99
77 71 60 93 77 92 74 63 61 74 71 82 86 85 80 72 63 51 52 60 55 56 52 37 36 36 39 37 40 44 43 47 53 58 61 56 50 34 37 42 47 56 64 74 85 92 97 97 98
68 67 83 96 95 89 79 89 93 97 85 90 91 87 73 69 58 54 60 63 59 65 63 54 49 48 49 54 55 48 47 57 68 67 61 59 40 38 41 48 61 69 76 91 99 96 99 98 98
77 72 82 90 76 97 95 98 98 97 96 94 92 81 71 62 60 61 67 70 67 65 68 63 69 68 57 60 51 55 59 68 72 68 67 50 41 40 46 61 72 78 85 94 99 99 97 97 97
86 85 86 80 74 75 89 97 96 97 96 91 91 84 76 59 59 66 68 74 78 75 72 71 67 63 60 56 63 65 72 74 68 69 58 49 40 45 58 69 77 86 90 98 96 99 95 99 98

GFSSGP_prec_cthk_102.txt.gz
RH
13 11 12 12 13 15 14 10 7 7 9 15 15 16 18 19 20 24 22 25 28 23 24 24 23 19 16 13 13 15 17 20 21 22 22 23 27 31 33 32 34 37 40 41 45 46 51 50 53
14 13 15 18 19 18 15 12 11 13 12 13 16 18 19 22 21 21 23 24 26 24 25 23 21 19 17 13 13 12 14 15 17 19 21 24 27 31 36 37 38 40 42 44 46 48 51 52 51
18 18 20 21 23 21 17 12 11 13 14 14 16 17 19 20 21 22 22 23 21 22 22 23 21 19 16 12 12 12 12 14 16 18 21 24 27 33 39 43 41 44 46 49 53 53 52 56 52
19 20 22 26 23 19 16 15 15 15 15 16 17 17 19 18 18 22 25 24 20 19 20 22 21 20 14 13 12 13 13 14 16 19 22 23 27 35 41 45 45 48 51 55 60 60 59 58 56
22 24 27 28 24 20 18 18 18 19 18 18 18 18 20 22 21 22 22 19 19 19 22 22 21 17 14 14 13 13 14 15 17 19 22 23 27 33 40 45 51 52 56 60 63 65 65 63 61
24 26 30 29 24 21 20 19 19 20 20 21 21 20 22 20 21 22 23 22 22 22 20 18 18 16 14 15 15 14 15 15 17 19 21 23 26 31 37 45 52 55 63 64 66 65 68 69 68
25 26 28 27 26 24 24 23 21 22 22 23 22 21 25 27 24 24 25 26 26 22 20 20 20 20 16 15 15 15 15 15 17 18 20 22 27 31 37 44 51 60 69 69 66 68 71 73 74
26 28 28 26 26 25 25 26 26 25 24 24 23 24 30 31 28 26 26 26 25 25 24 21 21 21 19 17 17 16 16 16 17 18 19 22 27 32 37 44 49 59 68 67 73 79 81 76 76
29 33 32 31 29 27 27 28 28 29 27 27 27 23 24 28 32 30 30 30 27 26 26 24 22 22 21 19 18 17 18 18 16 18 19 21 25 30 38 43 49 58 62 72 73 77 78 77 79
30 32 31 28 29 29 29 29 28 31 31 30 29 28 29 28 30 30 31 32 33 30 29 28 26 25 23 22 19 18 18 19 18 18 18 20 23 28 34 41 46 52 58 64 70 78 78 79 81
25 27 26 26 25 27 27 28 30 30 31 32 32 30 31 38 36 32 33 32 30 31 30 28 28 27 26 24 22 20 20 21 20 18 19 21 22 26 31 37 41 45 51 56 64 70 80 86 86
23 19 20 22 23 25 23 23 25 31 30 32 33 33 32 30 33 31 32 30 27 28 27 26 26 27 28 25 23 22 22 22 21 20 19 22 22 24 28 31 35 38 43 48 55 69 78 80 87
15 14 17 18 19 20 20 20 22 23 28 30 31 32 32 31 30 29 32 29 26 25 24 22 22 27 30 28 23 24 24 23 24 24 21 22 23 24 26 32 35 35 38 41 48 59 69 77 86
20 18 15 14 13 13 15 15 19 16 21 26 32 33 32 30 29 30 28 27 31 26 23 19 21 23 30 30 26 25 26 26 26 26 24 23 25 26 28 33 37 38 37 40 48 50 54 61 80
17 17 16 14 15 15 19 16 14 14 17 18 26 32 35 32 32 30 28 28 26 28 26 20 16 20 23 30 35 32 29 30 29 29 26 26 27 28 31 34 38 43 46 46 43 52 55 59 73
17 19 21 15 16 17 22 21 11 15 16 16 17 21 26 30 33 32 31 30 28 26 25 22 19 17 20 24 34 41 38 34 33 33 31 29 30 30 34 37 40 48 52 51 42 49 66 71 65
20 19 19 16 17 21 23 23 13 13 15 16 18 19 19 24 27 32 30 28 27 27 26 24 20 19 19 21 30 36 47 46 40 37 36 33 34 33 36 38 43 52 53 51 47 44 59 75 77
19 24 22 21 13 20 20 21 16 15 18 19 16 16 17 20 23 30 27 24 23 25 25 25 22 19 19 20 28 39 53 47 46 41 36 37 37 38 40 41 47 55 53 51 48 46 53 73 86
24 25 23 15 12 18 18 20 21 19 21 16 15 17 17 20 22 31 31 30 28 23 22 27 21 21 22 22 26 40 61 44 35 36 39 40 42 43 43 45 50 57 54 52 47 51 58 80 89
25 27 25 25 21 24 21 20 20 24 21 17 17 18 19 25 26 31 32 31 30 26 25 26 24 24 23 23 23 36 39 40 41 35 38 43 46 46 46 49 56 60 56 54 52 55 65 85 90
34 33 36 38 30 29 34 31 24 22 24 21 16 16 22 28 27 31 34 34 36 31 28 23 23 23 24 24 25 29 34 46 44 39 38 40 44 47 47 50 59 60 59 55 56 55 72 83 93
36 30 42 42 41 46 40 51 26 24 24 19 16 20 26 30 30 30 35 36 37 33 28 27 23 21 23 23 23 27 30 30 27 30 34 37 43 46 48 55 61 62 60 54 56 52 70 83 92
23 30 41 45 52 63 40 64 29 27 21 19 21 36 40 41 42 41 37 35 34 33 26 23 23 25 23 24 24 28 32 35 34 31 30 37 43 50 51 57 61 63 57 53 54 48 68 75 85
32 41 46 55 72 73 49 67 32 32 27 24 50 67 76 66 54 47 39 32 33 32 26 27 25 21 24 22 24 33 36 35 33 31 30 35 42 48 52 60 64 63 53 52 43 50 65 72 86
35 61 69 85 80 67 51 62 40 41 39 43 68 77 93 87 62 53 38 40 35 33 30 26 25 24 23 23 26 30 32 33 29 30 27 34 39 45 52 62 62 56 52 43 44 50 62 68 76
48 74 79 84 78 65 60 57 54 63 72 74 80 85 97 92 80 69 66 72 53 47 40 36 34 27 28 37 40 37 35 32 31 31 31 35 42 47 59 63 55 44 42 42 47 49 54 66 81
59 72 65 76 67 75 76 70 74 81 90 92 92 95 93 96 84 79 79 65 55 55 54 49 40 41 48 47 43 41 43 37 35 37 35 41 48 59 67 59 46 41 45 46 50 57 64 72 78
64 55 86 83 85 82 79 84 98 98 95 98 96 95 96 95 85 88 77 66 72 79 70 63 51 44 49 59 61 51 51 50 48 47 42 49 57 69 64 51 41 43 45 51 63 70 73 83 86
86 86 88 80 80 79 91 98 98 99 98 98 97 94 94 94 89 80 74 69 68 74 80 74 70 65 61 57 60 60 61 57 59 53 54 62 72 74 60 44 42 46 57 72 77 78 86 97 98
87 90 82 85 68 85 96 98 98 98 98 97 94 84 82 84 80 73 71 75 69 77 79 81 85 77 70 65 77 72 71 58 58 61 73 74 75 64 50 42 46 54 68 74 81 86 96 99 97

GFSSGP_prec_cthk_105.txt.gz
RH
14 12 12 13 15 16 15 13 9 8 6 10 13 14 15 19 22 22 21 21 22 23 25 25 25 24 22 19 17 13 14 16 19 21 22 24 25 26 28 30 31 32 36 38 41 51 55 56 54
18 15 14 16 17 18 15 14 13 11 11 11 13 13 14 16 20 20 21 25 24 24 25 24 24 22 21 21 18 14 14 15 17 20 21 24 26 28 32 32 32 34 38 40 45 49 50 50 51
19 18 19 20 24 18 14 14 14 13 12 14 14 15 15 16 18 20 21 24 22 23 25 25 23 21 21 22 18 13 13 13 14 17 20 23 26 30 34 34 35 38 41 44 46 50 48 51 50
20 21 21 26 26 21 18 17 16 16 14 16 16 16 15 17 17 19 21 22 21 21 22 20 21 24 23 20 17 14 13 14 14 16 20 23 27 30 36 38 38 42 47 47 50 51 52 53 53
21 22 26 29 26 22 21 19 20 20 19 17 19 18 17 18 18 19 21 23 20 20 19 19 21 19 19 18 14 15 14 14 15 16 19 23 27 31 37 42 45 49 51 53 54 56 57 56 57
22 23 30 29 25 23 24 23 22 21 21 20 20 20 17 18 21 21 23 22 21 20 21 23 22 22 19 17 15 15 16 15 16 17 18 22 26 31 36 40 45 51 55 58 58 59 57 59 61
22 25 27 26 24 23 23 24 25 25 24 23 23 20 19 20 23 25 27 24 22 21 24 23 23 21 19 19 19 17 17 15 17 17 17 20 24 29 34 37 45 51 61 63 64 64 63 63 65
24 26 27 24 24 23 23 25 27 28 28 26 26 24 22 27 25 28 31 28 26 25 24 23 23 23 21 20 20 20 19 17 17 18 18 19 22 26 32 36 43 51 64 70 67 67 65 67 68
28 31 34 27 26 25 25 27 28 27 28 30 31 28 25 25 35 31 33 30 29 27 25 23 23 23 23 22 22 21 20 20 18 20 19 19 21 25 30 36 41 47 56 61 65 65 65 68 69
26 35 30 26 26 27 28 29 28 27 28 31 33 31 29 31 40 41 33 31 29 28 27 27 26 25 24 25 24 23 22 20 19 21 20 19 21 24 28 35 40 45 50 55 58 64 66 69 70
26 29 27 27 26 27 27 26 26 26 28 30 32 33 30 34 43 48 50 43 32 29 29 28 29 29 27 25 25 24 24 21 21 22 22 20 22 25 27 32 36 40 45 48 52 57 66 75 72
23 21 22 21 20 22 21 21 20 21 23 28 31 34 33 33 40 46 55 65 56 43 37 38 38 37 32 28 26 27 26 23 22 23 24 23 23 25 26 29 33 36 38 41 45 51 67 73 80
19 17 16 16 15 15 17 17 16 17 18 23 29 32 34 33 33 42 46 48 63 63 48 36 33 34 34 34 31 28 28 25 23 25 25 25 25 25 24 28 32 35 38 38 39 43 45 54 69
16 17 16 16 16 16 16 14 15 14 13 15 20 26 32 33 33 33 33 35 41 53 53 44 34 32 30 31 32 32 30 28 26 27 27 28 28 26 26 27 31 35 39 41 42 41 47 52 55
15 15 14 13 14 17 17 14 14 14 13 12 15 18 21 27 32 32 34 34 34 36 43 46 39 30 28 28 31 31 35 30 27 31 30 31 32 29 28 28 31 34 40 44 47 50 49 53 57
15 16 18 18 17 17 20 18 13 13 15 15 15 16 16 18 24 27 30 34 35 35 34 34 43 36 29 27 26 29 31 37 30 34 33 33 35 32 32 32 33 36 40 45 50 54 58 46 50
17 18 18 15 14 15 18 19 12 14 14 14 14 14 14 13 15 20 25 29 33 36 36 34 33 34 34 27 28 28 28 35 46 39 37 38 38 37 35 35 36 40 42 46 53 58 53 50 48
20 23 23 23 22 18 18 19 12 10 10 12 12 12 11 11 11 13 20 26 32 34 34 36 35 31 29 31 32 32 32 30 45 53 48 43 41 40 37 39 40 44 45 49 58 58 53 52 54
25 27 25 21 18 21 23 22 18 13 12 11 13 15 13 13 11 11 14 19 25 29 34 36 35 30 32 34 39 28 27 28 34 49 64 56 48 44 40 43 46 47 48 50 59 57 52 52 57
27 29 28 22 21 24 22 21 17 16 19 14 12 15 16 16 14 13 16 18 24 28 31 33 34 29 29 30 34 25 23 27 31 45 62 54 53 49 44 45 49 50 51 53 61 58 53 54 61
28 30 29 29 21 20 25 22 17 17 16 18 13 17 22 25 20 18 22 23 27 27 28 29 29 26 28 29 30 27 28 33 38 52 58 47 46 51 47 49 51 53 52 55 60 59 56 57 61
18 20 22 23 29 33 30 41 29 21 18 20 21 29 37 33 27 25 29 26 29 29 29 30 31 29 32 30 28 25 27 29 33 46 45 53 51 53 45 52 53 53 52 57 60 60 57 58 58
16 16 23 27 34 38 31 43 26 29 29 29 39 45 43 39 35 34 37 38 36 38 37 36 36 32 31 29 25 28 30 30 35 38 44 42 45 50 39 49 53 53 55 63 65 61 52 60 57
28 31 28 28 35 56 30 49 31 44 49 49 57 57 55 53 49 48 50 54 48 46 44 41 43 35 34 29 29 26 28 33 34 40 37 36 42 41 38 46 51 51 55 64 65 60 53 56 55
32 48 58 60 48 48 37 47 39 63 73 73 69 68 63 62 62 71 71 71 64 57 51 48 43 37 34 32 25 24 26 32 37 39 39 44 41 38 37 43 47 50 52 61 64 57 56 50 54
42 55 63 58 62 58 62 73 89 94 97 85 91 84 72 67 80 92 86 86 81 63 49 44 39 40 38 33 33 28 31 38 41 52 45 42 35 36 37 44 48 51 53 63 57 55 48 50 52
49 53 49 68 68 78 60 50 74 97 93 91 91 83 83 79 91 95 97 95 78 67 59 46 48 42 38 37 37 34 33 39 48 57 58 39 39 37 40 46 50 53 61 63 51 41 44 50 52
54 61 84 92 91 87 61 79 95 96 95 96 92 96 95 94 90 98 96 98 89 79 71 57 51 53 44 41 44 48 47 56 68 59 54 48 48 41 45 51 53 59 67 55 41 42 44 49 56
80 89 88 85 82 86 76 92 98 98 97 97 97 97 98 97 96 99 98 89 86 85 80 76 69 60 56 54 50 54 63 74 68 66 61 62 56 51 50 55 61 71 59 45 43 46 54 65 71
58 71 98 93 90 78 84 98 98 98 96 97 93 88 92 96 97 98 89 86 83 80 84 88 82 71 66 64 61 61 77 77 78 76 77 72 64 57 54 64 75 67 52 45 48 56 66 74 76

GFSSGP_prec_cthk_108.txt.gz
RH
19 16 13 14 14 16 15 13 12 11 10 10 11 12 13 15 16 20 18 18 19 19 23 27 28 29 27 24 22 21 16 14 15 16 16 17 20 22 25 27 29 31 32 35 38 44 52 54 54
19 18 18 17 16 16 13 15 15 12 10 10 11 13 14 15 16 17 15 19 20 21 25 28 29 30 27 23 23 23 20 16 16 17 18 19 20 22 25 26 29 31 33 37 40 47 53 49 51
19 18 18 20 23 16 14 14 14 14 13 12 13 14 15 16 19 19 18 19 20 20 23 27 29 29 25 23 23 22 21 18 15 16 17 18 20 23 26 28 31 33 36 39 42 47 49 49 52
20 21 20 24 24 20 16 17 17 17 15 16 15 17 16 16 16 22 20 21 21 22 22 24 25 24 24 23 21 19 19 17 16 16 17 19 21 22 26 30 33 38 38 41 43 49 48 50 51
22 22 25 29 26 22 21 21 19 20 20 19 18 18 18 17 16 18 23 22 21 21 22 24 22 22 24 23 21 21 19 17 16 17 17 20 21 23 27 33 42 41 42 44 47 49 52 53 57
24 25 29 28 25 23 23 23 22 22 22 22 22 20 19 20 22 27 26 25 24 23 24 23 23 25 25 23 22 21 20 20 18 18 19 20 22 23 26 32 40 46 48 52 53 52 55 56 55
24 27 28 27 26 24 24 23 24 26 26 25 24 22 21 20 22 28 30 29 27 25 25 25 26 26 25 24 23 22 22 22 21 20 21 21 22 24 26 30 38 46 54 57 56 55 55 54 54
25 26 29 26 25 25 24 24 24 25 27 27 26 24 24 22 23 29 33 36 31 27 26 27 28 27 27 26 24 24 24 24 24 22 22 22 23 25 25 29 33 39 44 51 56 57 56 54 54
27 31 36 28 28 26 25 26 27 27 26 27 28 26 26 25 24 35 38 42 35 28 28 28 27 28 27 27 26 26 26 25 25 23 22 24 24 24 26 28 32 37 41 47 54 55 56 55 57
26 37 33 29 27 27 27 27 27 27 27 27 27 27 27 27 28 36 45 44 39 35 30 29 28 28 29 29 29 28 27 27 25 24 22 23 24 25 26 28 31 35 38 43 49 51 53 54 57
29 30 27 28 29 29 29 27 27 27 27 27 26 26 26 26 28 29 50 52 45 42 39 37 35 32 31 30 30 29 28 28 28 27 23 23 24 27 27 30 31 34 37 39 45 47 50 52 56
28 26 25 25 23 22 21 20 19 20 20 21 22 25 25 27 29 31 41 53 60 52 47 40 42 42 40 36 34 31 30 31 29 28 26 24 25 27 28 30 30 32 35 36 40 43 46 49 54
24 22 20 19 17 17 17 17 18 17 17 18 20 22 24 27 30 33 36 42 46 62 59 53 48 45 48 48 42 37 35 32 31 30 30 25 26 27 29 31 31 32 35 35 38 40 42 43 43
20 19 17 15 15 15 15 15 16 14 13 14 16 17 20 24 29 31 38 41 44 47 61 69 63 55 51 46 46 43 40 34 33 33 33 29 27 30 32 33 32 33 35 35 39 42 46 50 49
20 20 19 16 17 17 16 15 14 14 13 13 13 13 13 18 22 27 34 40 40 41 43 49 61 63 55 51 52 53 40 34 33 32 35 34 29 31 34 36 34 34 37 39 42 46 50 54 55
21 19 18 18 15 13 14 15 12 11 12 11 11 11 11 11 15 20 25 28 29 31 30 32 38 44 47 50 49 50 45 40 40 38 36 39 34 33 36 38 37 35 38 40 43 46 49 56 57
24 23 22 19 18 17 18 17 16 13 13 13 12 11 10 10 10 12 15 21 26 28 29 28 30 33 39 37 50 48 48 45 42 42 40 39 36 35 37 41 41 38 39 41 43 46 50 58 61
26 25 26 28 22 19 20 18 14 16 16 13 13 12 12 10 9 9 10 12 18 24 27 26 28 28 33 36 38 53 55 48 43 42 42 44 38 38 40 44 45 43 42 43 45 48 53 60 63
27 31 35 29 27 27 26 22 17 17 17 15 14 10 10 9 7 9 9 11 13 16 21 22 27 28 31 32 31 37 46 43 42 42 43 44 51 47 41 42 48 48 45 45 48 50 54 64 65
33 33 33 28 27 26 24 20 16 15 16 16 12 11 10 10 10 10 12 12 12 12 16 17 19 25 29 34 30 35 36 44 47 40 42 44 52 57 48 46 49 51 50 51 49 52 55 66 65
31 32 30 27 23 20 20 19 14 13 12 13 12 13 16 16 15 17 18 17 15 15 15 16 17 20 23 30 35 37 42 47 48 41 38 42 42 59 61 58 58 58 57 54 54 55 55 65 67
24 21 22 20 21 22 24 29 15 15 13 13 16 25 31 34 34 30 25 24 20 21 20 18 17 19 21 25 30 38 39 37 35 42 35 35 42 56 51 53 59 58 62 56 57 56 59 66 68
26 22 21 21 28 35 21 29 15 14 15 31 45 58 60 55 50 47 39 32 29 27 26 22 21 20 23 26 27 36 36 34 31 38 36 36 41 60 59 50 53 60 53 60 58 57 60 66 69
25 29 29 29 35 42 22 24 21 30 59 60 69 76 77 70 65 59 52 44 39 31 32 29 26 26 29 31 33 36 34 33 36 38 35 38 40 51 63 55 56 51 44 54 57 57 59 65 72
33 39 54 53 62 43 29 41 44 66 77 88 87 96 84 81 77 70 64 56 52 43 37 36 35 36 36 39 41 41 39 39 38 40 41 38 41 51 52 54 48 47 37 49 55 55 58 67 71
37 42 57 58 57 53 39 50 70 83 81 86 88 97 89 87 82 74 71 67 66 57 51 47 46 50 50 52 49 46 45 48 46 47 48 49 51 50 53 48 47 47 38 47 52 55 59 68 68
43 48 42 54 46 60 55 59 71 73 83 90 93 95 94 93 84 76 83 84 86 78 71 69 64 61 61 60 55 48 51 54 50 50 48 50 54 62 56 50 43 42 43 49 54 57 60 72 64
43 51 74 83 89 91 68 78 86 85 87 95 95 95 97 95 94 91 94 94 99 91 89 85 76 68 63 63 56 49 55 52 55 50 45 45 51 60 65 46 42 41 48 52 60 60 72 71 56
55 80 74 78 82 90 84 85 86 87 92 96 96 97 97 97 98 97 96 94 96 99 96 88 81 71 68 60 53 54 52 58 53 49 46 50 60 67 65 60 46 50 56 59 61 68 71 56 45
62 71 81 96 96 86 85 91 89 90 93 95 95 96 97 97 97 98 98 99 98 98 97 92 90 77 69 66 65 62 64 56 50 50 58 67 71 70 74 66 61 59 62 64 68 69 63 57 50

GFSSGP_prec_cthk_111.txt.gz
RH
17 16 15 15 14 14 12 12 13 10 10 10 10 10 12 13 15 19 19 19 21 20 20 21 22 27 28 27 26 23 22 21 20 18 17 19 20 22 22 23 25 27 28 30 34 37 45 49 52
19 17 17 17 14 12 12 14 14 12 11 11 11 11 13 16 18 17 19 20 23 23 24 26 27 30 30 28 26 24 21 21 20 20 19 19 21 22 22 22 24 26 27 32 36 40 47 50 50
21 19 19 19 16 14 14 15 15 14 13 13 14 13 14 15 16 18 20 24 25 24 23 25 29 31 31 29 26 22 21 22 22 21 20 19 20 21 22 22 23 25 30 34 38 42 47 47 48
21 21 21 21 20 17 17 17 16 16 16 16 16 15 16 17 17 19 20 26 25 25 25 28 30 30 29 27 25 25 23 23 23 21 20 20 20 21 22 24 24 27 33 35 41 44 48 46 50
22 22 23 24 23 22 21 20 18 18 18 17 18 18 17 18 17 18 21 26 26 26 25 27 30 30 28 26 26 26 25 24 23 22 22 21 22 22 23 24 26 31 33 40 45 47 49 51 52
24 25 24 23 24 24 22 21 21 20 20 20 20 20 20 18 18 20 24 29 27 26 27 29 30 29 27 27 27 27 26 25 25 24 24 23 24 24 25 27 29 31 35 42 47 48 49 50 50
25 26 26 26 26 24 24 23 22 22 22 22 22 21 21 21 19 20 25 31 33 29 30 31 30 29 29 29 28 27 26 26 27 27 26 24 25 26 27 29 31 33 36 45 49 49 50 51 49
25 26 28 27 26 25 25 24 23 23 23 23 24 23 23 22 21 20 24 31 36 35 34 35 30 30 31 32 30 28 27 27 28 29 29 26 26 27 28 30 31 33 35 39 43 50 52 52 50
26 28 30 26 27 25 26 26 26 26 25 25 25 24 25 24 23 23 25 36 39 42 37 37 32 35 34 32 32 31 29 29 29 31 32 28 27 27 29 29 31 32 35 37 40 47 52 51 51
27 31 28 27 26 27 27 27 26 26 26 25 24 24 24 23 25 24 27 35 45 49 45 39 36 37 36 34 34 33 31 32 31 31 33 32 28 27 28 30 31 34 36 39 40 43 47 49 50
30 28 30 31 30 31 29 27 26 24 24 24 23 23 23 23 24 28 28 36 50 51 50 40 40 36 37 36 37 37 35 32 32 33 34 34 33 29 29 31 32 34 38 40 39 41 43 44 47
31 30 29 28 27 26 25 24 22 21 19 19 19 21 23 23 24 28 31 36 43 57 55 47 45 44 39 40 41 41 39 36 34 34 34 35 34 33 30 32 32 33 35 39 40 40 42 40 42
25 23 23 22 21 21 20 20 19 18 16 16 17 18 20 21 23 26 28 34 40 50 57 57 51 48 45 42 43 43 43 42 39 38 35 35 35 34 33 32 34 35 35 39 41 41 42 41 42
24 23 21 20 18 18 18 18 19 13 14 13 15 15 16 18 20 24 28 30 35 39 50 52 58 52 49 50 44 44 48 48 42 40 37 37 39 37 34 34 34 37 37 38 42 42 44 44 46
24 23 22 19 20 21 21 18 18 19 15 13 11 10 11 13 16 20 25 29 33 37 39 40 45 48 50 59 54 54 54 53 48 47 40 35 36 38 38 34 37 36 40 38 42 44 45 47 49
26 25 23 22 22 20 19 16 19 17 14 12 11 10 9 8 8 9 13 21 28 32 36 38 40 42 45 53 68 65 53 51 55 53 47 39 36 36 38 38 38 39 39 42 42 44 46 48 50
29 24 24 22 22 22 22 21 17 15 15 14 12 11 10 8 8 8 8 9 17 25 30 32 33 33 34 40 47 59 54 49 51 50 49 42 42 39 38 40 39 42 41 42 42 44 46 49 51
25 27 28 28 25 24 24 22 22 21 17 15 15 12 11 10 9 8 8 9 8 10 19 25 28 27 29 31 32 37 44 47 52 48 46 46 48 45 40 41 41 41 44 43 43 43 49 50 54
32 32 33 33 30 31 27 21 20 20 18 18 14 13 12 11 12 11 11 10 10 10 11 12 20 23 23 24 25 27 29 35 46 48 48 50 49 53 46 42 43 41 43 45 45 45 48 52 56
32 33 34 31 30 27 22 18 17 18 19 16 14 14 13 12 15 15 12 10 9 10 11 11 10 15 20 21 24 23 26 28 36 47 48 49 47 51 53 47 42 47 47 46 47 46 50 56 57
36 36 33 28 26 23 22 20 18 18 18 17 22 28 30 32 33 30 23 20 17 15 14 13 12 11 15 18 22 25 28 33 31 38 49 47 46 47 55 54 52 51 51 48 47 51 56 58 58
37 31 28 28 27 26 26 27 21 20 22 33 35 36 36 35 38 43 39 31 28 24 20 19 18 16 15 17 19 25 24 30 32 30 36 45 46 48 49 48 60 63 59 56 53 58 61 61 60
39 35 34 38 41 38 32 38 18 17 28 39 42 42 44 48 52 47 48 47 43 37 29 24 22 22 18 20 21 23 25 23 30 31 35 45 45 46 46 45 59 65 63 65 67 67 65 61 60
46 49 47 42 44 42 27 29 19 40 48 51 54 54 49 54 60 64 61 60 59 57 48 39 31 28 23 22 22 24 24 27 30 31 35 41 43 47 50 47 51 68 55 58 56 63 62 62 63
47 51 51 46 49 34 32 33 31 49 55 58 57 57 60 59 67 72 74 72 67 63 59 54 43 30 28 25 23 25 31 35 32 34 36 39 43 44 45 44 51 69 64 66 63 60 53 57 61
47 44 39 42 40 36 33 28 43 54 57 62 68 73 72 72 70 76 86 78 77 76 76 66 54 40 32 31 26 34 39 40 40 45 44 44 43 48 46 46 57 67 71 69 65 58 47 51 59
46 40 35 43 39 45 32 43 59 60 73 79 85 84 81 78 79 84 90 83 87 87 85 77 63 53 47 40 38 38 40 46 46 50 52 50 52 53 50 49 62 66 67 69 59 62 48 52 60
36 49 62 58 71 68 52 53 66 78 83 84 86 86 87 89 92 92 92 86 87 92 91 88 75 66 57 51 53 52 57 58 57 58 54 54 58 57 56 55 60 69 70 59 57 48 49 50 56
49 53 56 57 64 81 80 82 83 85 87 87 87 87 92 95 96 96 97 97 97 98 97 97 90 81 76 68 66 65 68 65 64 62 62 63 57 55 56 60 65 72 68 62 53 50 49 54 61
55 59 83 88 84 92 93 85 95 92 94 91 91 94 96 96 96 97 97 97 98 98 98 99 95 92 89 86 79 75 79 72 67 66 72 74 62 58 61 63 66 67 70 76 54 51 54 62 66

GFSSGP_prec_cthk_114.txt.gz
RH
17 16 15 16 16 12 12 11 11 10 9 10 11 9 8 11 13 18 19 21 21 24 22 23 24 24 30 30 29 28 25 24 26 26 26 25 24 24 23 23 25 26 25 27 31 34 42 46 48
19 18 19 19 15 13 13 12 13 11 10 10 10 10 11 13 16 17 22 22 22 26 24 26 27 28 32 32 29 26 24 24 24 26 27 25 25 24 24 25 25 26 26 28 32 36 47 47 49
20 20 21 19 16 15 15 13 13 13 12 12 12 13 14 17 17 19 22 24 26 30 27 25 25 29 33 32 29 25 24 24 25 26 25 25 25 25 25 25 26 27 27 31 33 38 44 48 47
23 22 21 20 18 17 17 16 16 14 15 15 15 15 15 19 20 19 21 25 29 34 31 27 27 31 33 31 29 26 25 26 27 26 26 26 26 26 26 26 27 28 30 32 35 40 46 47 47
24 23 22 21 20 19 18 19 19 18 17 17 17 18 18 19 21 21 22 26 33 33 33 28 30 33 33 32 28 27 27 28 27 27 26 26 26 27 27 27 28 30 33 34 39 41 46 50 47
24 25 23 22 21 21 21 21 21 20 20 19 19 19 21 20 19 21 23 30 31 35 34 29 31 34 34 31 29 28 28 29 29 29 28 27 26 27 29 28 29 32 33 37 42 45 45 48 48
26 26 24 23 24 23 23 23 22 22 22 22 23 21 22 22 21 22 22 28 33 32 33 33 33 35 35 32 30 29 28 29 30 30 30 30 28 28 29 30 30 34 36 40 47 49 47 48 48
27 27 25 25 25 25 24 24 24 23 23 25 24 24 25 24 21 24 23 23 33 37 36 36 37 36 35 34 33 31 30 30 30 31 33 32 29 29 31 31 33 34 36 40 46 50 50 51 49
28 26 25 26 26 25 25 26 25 28 26 26 26 26 25 23 22 23 23 30 35 38 42 37 40 40 36 38 35 34 32 31 32 32 34 34 34 32 32 32 33 35 37 39 41 46 52 53 50
29 27 27 27 27 26 26 27 28 29 28 27 25 26 25 23 23 24 25 25 35 43 45 43 42 43 38 42 40 36 35 34 35 33 33 36 40 39 39 35 34 36 38 39 41 44 49 51 51
30 30 28 31 28 28 29 28 27 26 26 26 25 24 23 23 22 24 25 26 31 45 50 49 47 48 42 45 42 41 42 41 37 36 36 37 41 40 39 42 39 40 37 38 40 41 45 51 56
31 29 28 28 29 28 26 24 24 24 23 23 23 24 22 23 22 23 25 26 29 42 54 59 57 52 47 42 43 39 43 39 37 37 39 40 38 40 40 41 41 40 41 40 37 41 45 50 52
27 23 23 24 24 22 21 21 20 19 19 18 20 19 19 19 20 20 22 27 29 35 45 56 60 58 52 49 43 41 40 46 41 40 39 40 37 36 37 39 42 44 44 45 41 40 41 46 50
27 26 24 21 21 20 20 18 19 18 17 17 15 15 15 16 17 18 20 23 26 31 37 42 55 63 56 50 47 44 42 44 42 42 42 41 42 39 36 39 40 44 42 43 46 43 41 43 47
25 25 22 21 21 20 22 21 22 20 19 18 17 16 14 12 12 13 16 19 24 28 33 37 45 54 48 47 49 45 43 43 44 44 45 44 45 49 41 36 40 42 43 41 44 47 44 42 45
25 26 23 23 24 23 21 18 18 21 19 18 16 14 12 9 9 9 9 12 18 25 29 34 38 46 49 44 46 52 53 47 45 47 50 46 47 49 48 39 36 42 44 43 42 44 46 44 42
27 20 20 23 23 23 22 20 21 21 20 18 17 15 13 12 10 10 9 9 9 13 21 28 31 33 40 49 54 52 57 66 61 60 56 52 53 48 48 46 41 41 43 43 47 45 45 49 44
24 26 25 25 24 25 23 22 23 25 22 20 19 17 16 14 13 13 14 12 13 11 10 11 23 29 33 40 48 53 54 59 69 67 54 49 46 46 47 52 50 43 45 46 46 47 48 50 49
29 30 28 25 27 27 25 23 25 22 19 19 19 20 18 21 26 23 23 22 17 15 13 10 9 19 26 32 38 44 48 53 55 58 53 45 44 46 50 54 51 44 42 44 45 48 51 52 53
31 31 30 30 28 26 22 17 22 20 21 22 21 26 34 30 29 28 25 25 24 20 19 17 15 13 17 26 28 35 39 40 47 51 56 55 50 46 49 51 53 45 42 45 45 46 50 53 53
36 36 35 34 31 29 27 21 23 23 24 30 39 36 33 33 34 32 27 28 28 25 22 19 17 17 15 16 21 25 36 41 38 40 40 44 42 40 44 45 47 51 48 49 50 50 51 53 54
40 41 39 37 37 33 31 28 27 27 31 45 42 41 38 38 38 36 33 31 32 31 28 24 20 17 17 19 21 22 28 31 31 34 34 32 34 37 38 45 46 49 54 55 50 52 55 57 53
41 41 43 47 48 45 36 41 27 28 33 48 46 47 43 41 39 40 38 39 39 38 35 29 26 22 22 24 24 23 20 24 30 29 31 33 31 34 38 45 50 48 51 55 55 58 58 57 59
46 46 41 40 41 45 39 39 31 36 55 48 43 45 45 46 47 46 46 44 46 48 45 41 34 32 30 27 28 29 26 24 30 29 27 30 33 26 32 44 51 49 47 49 54 65 68 69 70
49 45 44 48 59 47 38 38 28 53 47 47 53 53 55 56 54 55 53 50 52 58 58 54 50 47 46 39 30 31 30 28 33 31 29 32 30 32 31 41 49 50 46 52 62 75 68 62 65
51 49 47 39 37 35 46 37 32 47 43 53 56 58 63 64 63 64 62 63 61 64 60 58 56 52 54 49 36 34 33 33 33 37 36 37 33 36 38 44 50 50 48 53 60 67 66 63 72
49 52 44 44 40 42 34 26 39 46 56 60 64 70 72 70 73 72 71 74 68 64 62 68 69 71 66 58 43 40 41 39 40 40 40 38 38 42 42 48 56 54 49 52 59 76 72 74 78
39 48 55 48 60 56 42 43 64 73 70 70 79 77 76 77 78 77 82 82 79 76 71 75 78 84 71 58 43 42 41 39 48 49 43 45 50 49 54 54 59 57 51 54 57 71 74 78 78
46 42 49 56 61 65 68 82 89 82 82 86 83 81 83 85 83 87 89 94 92 86 85 89 98 90 82 66 50 47 46 47 59 54 56 60 65 69 67 62 60 58 56 53 57 69 74 79 71
43 50 57 69 77 70 81 75 85 91 89 90 91 89 90 90 89 89 96 95 95 95 96 97 97 98 92 79 71 67 63 66 75 76 69 69 72 75 72 70 65 63 59 62 69 74 83 80 76